| time (UTC) | temp F | wind direction | speed MPH | gust MPH | rain 1hr in | rain 24hr in | rain mn in | humidity % | barometer mb |
| 20260510160533 | 71 | 184 | 6.0 | 12.0 | 0.00 | 0.17 | 0.01 | 50 | 1044.7 |
| 20260510160527 | 71 | 233 | 6.0 | 12.0 | 0.00 | 0.17 | 0.01 | 50 | 1044.7 |
| 20260510160258 | 71 | 214 | 6.0 | 12.0 | 0.00 | 0.17 | 0.01 | 49 | 1044.7 |
| 20260510155920 | 71 | 222 | 6.0 | 13.0 | 0.00 | 0.18 | 0.01 | 49 | 1044.7 |
| 20260510155821 | 71 | 218 | 7.0 | 16.0 | 0.00 | 0.18 | 0.01 | 49 | 1044.8 |
| 20260510155721 | 71 | 204 | 7.0 | 16.0 | 0.00 | 0.19 | 0.01 | 49 | 1044.7 |
| 20260510155704 | 71 | 217 | 7.0 | 16.0 | 0.00 | 0.19 | 0.01 | 49 | 1044.7 |
| 20260510155621 | 71 | 177 | 7.0 | 16.0 | 0.00 | 0.20 | 0.01 | 49 | 1044.8 |
| 20260510155519 | 71 | 250 | 7.0 | 16.0 | 0.00 | 0.20 | 0.01 | 50 | 1044.8 |
| 20260510155418 | 71 | 216 | 6.0 | 16.0 | 0.00 | 0.20 | 0.01 | 50 | 1044.8 |
| 20260510155322 | 71 | 161 | 6.0 | 16.0 | 0.00 | 0.20 | 0.01 | 50 | 1044.8 |
| 20260510155256 | 71 | 210 | 6.0 | 16.0 | 0.00 | 0.21 | 0.01 | 51 | 1044.8 |
| 20260510155245 | 71 | 195 | 6.0 | 16.0 | 0.00 | 0.21 | 0.01 | 51 | 1044.8 |
| 20260510155235 | 71 | 226 | 6.0 | 16.0 | 0.00 | 0.22 | 0.01 | 51 | 1044.8 |
| 20260510154916 | 71 | 228 | 7.0 | 16.0 | 0.00 | 0.23 | 0.01 | 52 | 1044.7 |
| 20260510154813 | 71 | 165 | 7.0 | 16.0 | 0.00 | 0.23 | 0.01 | 50 | 1044.7 |
| 20260510154715 | 71 | 194 | 7.0 | 16.0 | 0.00 | 0.23 | 0.01 | 51 | 1044.7 |
| 20260510154704 | 71 | 193 | 7.0 | 16.0 | 0.00 | 0.23 | 0.01 | 51 | 1044.7 |
| 20260510154606 | 71 | 207 | 7.0 | 16.0 | 0.00 | 0.24 | 0.01 | 51 | 1044.8 |
| 20260510154506 | 71 | 226 | 7.0 | 16.0 | 0.00 | 0.24 | 0.01 | 51 | 1044.8 |
| 20260510154446 | 71 | 229 | 8.0 | 16.0 | 0.00 | 0.24 | 0.01 | 51 | 1044.8 |
| 20260510154437 | 71 | 254 | 8.0 | 16.0 | 0.00 | 0.24 | 0.01 | 50 | 1044.8 |
| 20260510154101 | 71 | 172 | 7.0 | 16.0 | 0.00 | 0.26 | 0.01 | 50 | 1044.9 |
| 20260510154000 | 71 | 222 | 7.0 | 16.0 | 0.00 | 0.26 | 0.01 | 50 | 1044.8 |
| 20260510153900 | 71 | 162 | 7.0 | 17.0 | 0.00 | 0.27 | 0.01 | 50 | 1045.0 |
| 20260510153801 | 71 | 193 | 6.0 | 17.0 | 0.00 | 0.27 | 0.01 | 50 | 1044.9 |
| 20260510153717 | 71 | 205 | 6.0 | 17.0 | 0.00 | 0.28 | 0.01 | 51 | 1044.9 |
| 20260510153700 | 71 | 229 | 6.0 | 17.0 | 0.00 | 0.28 | 0.01 | 51 | 1044.9 |
| 20260510153632 | 71 | 226 | 7.0 | 17.0 | 0.00 | 0.28 | 0.01 | 51 | 1044.8 |
| 20260510153624 | 71 | 236 | 7.0 | 19.0 | 0.00 | 0.29 | 0.01 | 51 | 1044.8 |
| 20260510153300 | 71 | 185 | 7.0 | 19.0 | 0.00 | 0.30 | 0.01 | 52 | 1044.9 |
| 20260510153211 | 71 | 170 | 7.0 | 19.0 | 0.00 | 0.31 | 0.01 | 52 | 1044.9 |
| 20260510153158 | 71 | 165 | 7.0 | 19.0 | 0.00 | 0.31 | 0.01 | 52 | 1044.9 |
| 20260510153059 | 71 | 185 | 7.0 | 19.0 | 0.00 | 0.31 | 0.01 | 51 | 1044.9 |
| 20260510153032 | 71 | 178 | 7.0 | 19.0 | 0.00 | 0.31 | 0.01 | 52 | 1045.1 |
| 20260510153022 | 71 | 175 | 7.0 | 19.0 | 0.00 | 0.32 | 0.01 | 52 | 1045.0 |
| 20260510152730 | 71 | 206 | 7.0 | 19.0 | 0.00 | 0.34 | 0.01 | 52 | 1045.0 |
| 20260510152723 | 71 | 196 | 7.0 | 19.0 | 0.00 | 0.34 | 0.01 | 52 | 1045.0 |
| 20260510152717 | 71 | 217 | 6.0 | 19.0 | 0.00 | 0.34 | 0.01 | 54 | 1045.0 |
| 20260510152353 | 71 | 165 | 6.0 | 19.0 | 0.00 | 0.35 | 0.01 | 54 | 1044.9 |
| 20260510152255 | 70 | 231 | 7.0 | 19.0 | 0.00 | 0.35 | 0.01 | 54 | 1044.9 |
| 20260510152209 | 70 | 225 | 7.0 | 19.0 | 0.00 | 0.35 | 0.01 | 53 | 1044.9 |
| 20260510152153 | 70 | 247 | 7.0 | 19.0 | 0.00 | 0.35 | 0.01 | 53 | 1044.9 |
| 20260510152053 | 70 | 172 | 8.0 | 19.0 | 0.00 | 0.35 | 0.01 | 53 | 1044.9 |
| 20260510151953 | 71 | 185 | 8.0 | 19.0 | 0.00 | 0.36 | 0.01 | 54 | 1045.0 |
| 20260510151853 | 71 | 241 | 8.0 | 19.0 | 0.00 | 0.37 | 0.01 | 53 | 1045.0 |
| 20260510151752 | 71 | 191 | 8.0 | 19.0 | 0.00 | 0.37 | 0.01 | 52 | 1045.0 |
| 20260510151704 | 71 | 189 | 8.0 | 19.0 | 0.00 | 0.38 | 0.01 | 53 | 1045.1 |
| 20260510151653 | 71 | 179 | 8.0 | 19.0 | 0.00 | 0.38 | 0.01 | 53 | 1045.1 |
| 20260510151552 | 71 | 200 | 8.0 | 19.0 | 0.00 | 0.38 | 0.01 | 53 | 1044.9 |
| 20260510151526 | 71 | 173 | 8.0 | 19.0 | 0.00 | 0.39 | 0.01 | 53 | 1045.0 |
| 20260510151518 | 71 | 122 | 8.0 | 16.0 | 0.00 | 0.39 | 0.01 | 53 | 1044.9 |
| 20260510151211 | 71 | 222 | 8.0 | 16.0 | 0.00 | 0.39 | 0.01 | 52 | 1045.0 |
| 20260510151154 | 71 | 217 | 8.0 | 16.0 | 0.00 | 0.39 | 0.01 | 52 | 1045.0 |
| 20260510151052 | 71 | 216 | 7.0 | 16.0 | 0.00 | 0.39 | 0.01 | 52 | 1045.1 |
| 20260510150953 | 71 | 203 | 7.0 | 16.0 | 0.00 | 0.39 | 0.01 | 53 | 1045.1 |
| 20260510150935 | 71 | 183 | 7.0 | 16.0 | 0.00 | 0.39 | 0.01 | 53 | 1045.1 |
| 20260510150928 | 71 | 182 | 8.0 | 16.0 | 0.00 | 0.39 | 0.01 | 52 | 1045.1 |
| 20260510150918 | 71 | 181 | 8.0 | 16.0 | 0.00 | 0.39 | 0.01 | 53 | 1045.1 |
| 20260510150548 | 71 | 236 | 8.0 | 16.0 | 0.00 | 0.39 | 0.01 | 52 | 1045.1 |
| 20260510150521 | 71 | 223 | 8.0 | 16.0 | 0.00 | 0.39 | 0.01 | 52 | 1045.2 |
| 20260510150513 | 71 | 216 | 7.0 | 16.0 | 0.00 | 0.39 | 0.01 | 53 | 1045.2 |
| 20260510150204 | 71 | 210 | 7.0 | 16.0 | 0.00 | 0.39 | 0.01 | 53 | 1045.2 |
| 20260510150143 | 71 | 231 | 7.0 | 16.0 | 0.00 | 0.39 | 0.01 | 53 | 1045.1 |
| 20260510150043 | 71 | 192 | 7.0 | 16.0 | 0.00 | 0.39 | 0.01 | 52 | 1045.4 |
| 20260510150001 | 71 | 195 | 7.0 | 16.0 | 0.00 | 0.39 | 0.01 | 53 | 1045.4 |
| 20260510145952 | 71 | 186 | 7.0 | 16.0 | 0.00 | 0.39 | 0.01 | 52 | 1045.2 |
| 20260510145941 | 71 | 187 | 7.0 | 16.0 | 0.00 | 0.39 | 0.01 | 53 | 1045.4 |
| 20260510145711 | 71 | 220 | 6.0 | 15.0 | 0.00 | 0.39 | 0.01 | 52 | 1045.2 |
| 20260510145704 | 71 | 175 | 6.0 | 15.0 | 0.00 | 0.39 | 0.01 | 53 | 1045.2 |
| 20260510145343 | 71 | 201 | 6.0 | 15.0 | 0.00 | 0.39 | 0.01 | 52 | 1045.4 |
| 20260510145243 | 71 | 215 | 5.0 | 15.0 | 0.00 | 0.39 | 0.01 | 52 | 1045.4 |
| 20260510145224 | 71 | 160 | 5.0 | 14.0 | 0.00 | 0.40 | 0.01 | 52 | 1045.4 |
| 20260510145217 | 71 | 125 | 5.0 | 14.0 | 0.00 | 0.40 | 0.01 | 53 | 1045.4 |
| 20260510145205 | 71 | 278 | 6.0 | 12.0 | 0.00 | 0.40 | 0.01 | 53 | 1045.4 |
| 20260510144841 | 71 | 217 | 6.0 | 15.0 | 0.00 | 0.40 | 0.01 | 53 | 1045.4 |
| 20260510144740 | 71 | 267 | 7.0 | 15.0 | 0.00 | 0.40 | 0.01 | 52 | 1045.4 |
| 20260510144704 | 71 | 168 | 7.0 | 17.0 | 0.00 | 0.40 | 0.01 | 51 | 1045.4 |
| 20260510144640 | 71 | 189 | 7.0 | 17.0 | 0.00 | 0.40 | 0.01 | 52 | 1045.4 |
| 20260510144559 | 71 | 230 | 7.0 | 17.0 | 0.00 | 0.40 | 0.01 | 52 | 1045.4 |
| 20260510144550 | 71 | 211 | 8.0 | 17.0 | 0.00 | 0.40 | 0.01 | 52 | 1045.4 |
| 20260510144539 | 71 | 229 | 8.0 | 17.0 | 0.00 | 0.40 | 0.01 | 52 | 1045.4 |
| 20260510144306 | 71 | 223 | 8.0 | 17.0 | 0.00 | 0.40 | 0.01 | 51 | 1045.4 |
| 20260510144259 | 71 | 136 | 8.0 | 17.0 | 0.00 | 0.40 | 0.01 | 51 | 1045.5 |
| 20260510143936 | 71 | 210 | 7.0 | 17.0 | 0.00 | 0.40 | 0.01 | 53 | 1045.6 |
| 20260510143836 | 71 | 289 | 7.0 | 17.0 | 0.00 | 0.40 | 0.01 | 53 | 1045.4 |
| 20260510143734 | 71 | 216 | 7.0 | 17.0 | 0.00 | 0.40 | 0.01 | 54 | 1045.4 |
| 20260510143704 | 71 | 195 | 7.0 | 14.0 | 0.00 | 0.40 | 0.01 | 54 | 1045.4 |
| 20260510143649 | 71 | 195 | 7.0 | 14.0 | 0.00 | 0.40 | 0.01 | 54 | 1045.5 |
| 20260510143639 | 71 | 227 | 6.0 | 14.0 | 0.00 | 0.40 | 0.01 | 54 | 1045.5 |
| 20260510143627 | 71 | 221 | 6.0 | 13.0 | 0.00 | 0.40 | 0.01 | 54 | 1045.4 |
| 20260510143619 | 71 | 206 | 6.0 | 13.0 | 0.00 | 0.40 | 0.01 | 55 | 1045.5 |
| 20260510143610 | 71 | 171 | 6.0 | 13.0 | 0.00 | 0.40 | 0.01 | 54 | 1045.4 |
| 20260510143557 | 71 | 179 | 6.0 | 13.0 | 0.00 | 0.40 | 0.01 | 55 | 1045.4 |
| 20260510143325 | 71 | 174 | 6.0 | 13.0 | 0.00 | 0.40 | 0.01 | 55 | 1045.4 |
| 20260510142731 | 71 | 158 | 5.0 | 13.0 | 0.00 | 0.40 | 0.01 | 56 | 1045.5 |
| 20260510142703 | 71 | 205 | 5.0 | 13.0 | 0.00 | 0.40 | 0.01 | 56 | 1045.5 |
| 20260510142630 | 71 | 211 | 5.0 | 12.0 | 0.00 | 0.40 | 0.01 | 56 | 1045.4 |
| 20260510142530 | 71 | 209 | 5.0 | 12.0 | 0.00 | 0.40 | 0.01 | 56 | 1045.4 |
| 20260510142503 | 71 | 210 | 5.0 | 12.0 | 0.00 | 0.40 | 0.01 | 56 | 1045.5 |
| 20260510142455 | 71 | 171 | 5.0 | 12.0 | 0.00 | 0.40 | 0.01 | 57 | 1045.4 |
| 20260510142203 | 71 | 191 | 5.0 | 12.0 | 0.00 | 0.40 | 0.01 | 56 | 1045.5 |
| 20260510142128 | 71 | 193 | 5.0 | 12.0 | 0.00 | 0.40 | 0.01 | 57 | 1045.6 |
| 20260510142050 | 70 | 192 | 5.0 | 12.0 | 0.00 | 0.40 | 0.01 | 58 | 1045.5 |
| 20260510142041 | 70 | 201 | 5.0 | 12.0 | 0.00 | 0.40 | 0.01 | 58 | 1045.6 |
| 20260510142030 | 70 | 106 | 6.0 | 12.0 | 0.00 | 0.40 | 0.01 | 59 | 1045.6 |
| 20260510142020 | 70 | 197 | 6.0 | 12.0 | 0.00 | 0.40 | 0.01 | 57 | 1045.6 |
| 20260510141749 | 70 | 213 | 7.0 | 12.0 | 0.00 | 0.40 | 0.01 | 57 | 1045.7 |
| 20260510141425 | 70 | 179 | 6.0 | 12.0 | 0.00 | 0.40 | 0.01 | 56 | 1045.8 |
| 20260510141325 | 71 | 160 | 6.0 | 12.0 | 0.00 | 0.40 | 0.01 | 57 | 1045.8 |
| 20260510141224 | 71 | 218 | 6.0 | 12.0 | 0.00 | 0.40 | 0.01 | 56 | 1045.8 |
| 20260510141201 | 71 | 210 | 6.0 | 12.0 | 0.00 | 0.41 | 0.01 | 56 | 1045.8 |
| 20260510141124 | 71 | 179 | 6.0 | 12.0 | 0.00 | 0.41 | 0.01 | 56 | 1045.8 |
| 20260510141024 | 71 | 232 | 6.0 | 12.0 | 0.00 | 0.41 | 0.01 | 56 | 1045.9 |
| 20260510140922 | 71 | 167 | 6.0 | 12.0 | 0.00 | 0.41 | 0.01 | 55 | 1045.9 |
| 20260510140823 | 71 | 183 | 6.0 | 12.0 | 0.00 | 0.41 | 0.01 | 57 | 1045.9 |
| 20260510140803 | 71 | 199 | 6.0 | 12.0 | 0.00 | 0.41 | 0.01 | 57 | 1045.9 |
| 20260510140753 | 71 | 143 | 6.0 | 12.0 | 0.00 | 0.41 | 0.01 | 57 | 1045.9 |
| 20260510140746 | 71 | 191 | 5.0 | 12.0 | 0.00 | 0.41 | 0.01 | 58 | 1046.0 |
| 20260510140429 | 71 | 142 | 6.0 | 12.0 | 0.00 | 0.41 | 0.01 | 57 | 1045.9 |
| 20260510140420 | 71 | 181 | 5.0 | 13.0 | 0.00 | 0.41 | 0.01 | 58 | 1046.0 |
| 20260510140406 | 71 | 198 | 5.0 | 13.0 | 0.00 | 0.41 | 0.01 | 59 | 1046.0 |
| 20260510140354 | 71 | 183 | 5.0 | 13.0 | 0.00 | 0.41 | 0.01 | 59 | 1046.0 |
| 20260510140132 | 71 | 173 | 5.0 | 13.0 | 0.00 | 0.41 | 0.01 | 59 | 1045.9 |
| 20260510135811 | 71 | 241 | 5.0 | 13.0 | 0.00 | 0.41 | 0.01 | 58 | 1045.9 |
| 20260510135712 | 71 | 208 | 5.0 | 13.0 | 0.00 | 0.41 | 0.01 | 60 | 1046.0 |
| 20260510135701 | 71 | 210 | 5.0 | 13.0 | 0.00 | 0.41 | 0.01 | 60 | 1046.0 |
| 20260510135612 | 71 | 115 | 5.0 | 13.0 | 0.00 | 0.41 | 0.01 | 60 | 1045.9 |
| 20260510135507 | 71 | 254 | 5.0 | 13.0 | 0.00 | 0.41 | 0.01 | 61 | 1045.9 |
| 20260510135404 | 71 | 254 | 4.0 | 13.0 | 0.00 | 0.42 | 0.01 | 63 | 1045.9 |
| 20260510135306 | 71 | 133 | 4.0 | 12.0 | 0.00 | 0.42 | 0.01 | 62 | 1045.9 |
| 20260510135217 | 71 | 259 | 4.0 | 12.0 | 0.00 | 0.42 | 0.01 | 61 | 1046.0 |
| 20260510135202 | 71 | 259 | 4.0 | 12.0 | 0.00 | 0.42 | 0.01 | 61 | 1046.0 |
| 20260510135105 | 71 | 259 | 5.0 | 12.0 | 0.00 | 0.42 | 0.01 | 61 | 1046.0 |
| 20260510134955 | 71 | 271 | 4.0 | 12.0 | 0.00 | 0.43 | 0.01 | 60 | 1046.0 |
| 20260510134921 | 71 | 178 | 4.0 | 12.0 | 0.00 | 0.43 | 0.01 | 60 | 1046.0 |
| 20260510134911 | 71 | 185 | 4.0 | 12.0 | 0.00 | 0.43 | 0.01 | 61 | 1046.0 |
| 20260510134854 | 71 | 179 | 3.0 | 12.0 | 0.00 | 0.43 | 0.01 | 62 | 1046.1 |
| 20260510134622 | 71 | 188 | 3.0 | 9.0 | 0.00 | 0.43 | 0.01 | 65 | 1046.0 |
| 20260510134613 | 70 | 168 | 3.0 | 9.0 | 0.00 | 0.43 | 0.01 | 66 | 1046.0 |
| 20260510134606 | 70 | 167 | 3.0 | 9.0 | 0.00 | 0.43 | 0.01 | 65 | 1046.0 |
| 20260510134543 | 70 | 168 | 3.0 | 9.0 | 0.00 | 0.43 | 0.01 | 66 | 1046.0 |
| 20260510133743 | 70 | 172 | 4.0 | 9.0 | 0.00 | 0.43 | 0.01 | 65 | 1046.1 |
| 20260510133700 | 70 | 174 | 4.0 | 9.0 | 0.00 | 0.43 | 0.01 | 64 | 1046.1 |
| 20260510133642 | 70 | 172 | 4.0 | 9.0 | 0.00 | 0.43 | 0.01 | 64 | 1046.2 |
| 20260510133542 | 70 | 167 | 4.0 | 9.0 | 0.00 | 0.43 | 0.01 | 64 | 1046.2 |
| 20260510133433 | 69 | 191 | 4.0 | 9.0 | 0.00 | 0.43 | 0.01 | 65 | 1046.2 |
| 20260510133406 | 69 | 191 | 4.0 | 9.0 | 0.00 | 0.44 | 0.01 | 65 | 1046.2 |
| 20260510133359 | 69 | 191 | 4.0 | 9.0 | 0.00 | 0.44 | 0.01 | 65 | 1046.3 |
| 20260510133349 | 69 | 186 | 4.0 | 9.0 | 0.00 | 0.44 | 0.01 | 65 | 1046.3 |
| 20260510133334 | 69 | 233 | 4.0 | 8.0 | 0.00 | 0.44 | 0.01 | 64 | 1046.3 |
| 20260510133112 | 69 | 233 | 4.0 | 8.0 | 0.00 | 0.44 | 0.01 | 64 | 1046.3 |
| 20260510132838 | 69 | 228 | 4.0 | 8.0 | 0.00 | 0.44 | 0.01 | 64 | 1046.3 |
| 20260510132828 | 69 | 228 | 4.0 | 8.0 | 0.00 | 0.44 | 0.01 | 64 | 1046.3 |
| 20260510132821 | 69 | 228 | 4.0 | 8.0 | 0.00 | 0.44 | 0.01 | 64 | 1046.4 |
| 20260510132804 | 69 | 232 | 3.0 | 7.0 | 0.00 | 0.44 | 0.01 | 64 | 1046.4 |
| 20260510132739 | 69 | 240 | 3.0 | 7.0 | 0.00 | 0.44 | 0.01 | 64 | 1046.4 |
| 20260510132731 | 69 | 240 | 4.0 | 7.0 | 0.00 | 0.44 | 0.01 | 64 | 1046.4 |
| 20260510132505 | 69 | 240 | 3.0 | 7.0 | 0.00 | 0.44 | 0.01 | 63 | 1046.4 |
| 20260510132456 | 69 | 240 | 3.0 | 7.0 | 0.00 | 0.44 | 0.01 | 63 | 1046.3 |
| 20260510132443 | 69 | 240 | 4.0 | 6.0 | 0.00 | 0.44 | 0.01 | 64 | 1046.4 |
| 20260510131656 | 69 | 239 | 4.0 | 8.0 | 0.00 | 0.44 | 0.01 | 63 | 1046.4 |
| 20260510131611 | 69 | 239 | 4.0 | 8.0 | 0.00 | 0.44 | 0.01 | 63 | 1046.4 |
| 20260510131510 | 69 | 239 | 4.0 | 10.0 | 0.00 | 0.44 | 0.01 | 63 | 1046.4 |
| 20260510131406 | 69 | 239 | 5.0 | 10.0 | 0.00 | 0.44 | 0.01 | 63 | 1046.4 |
| 20260510131348 | 69 | 238 | 4.0 | 10.0 | 0.00 | 0.44 | 0.01 | 63 | 1046.4 |
| 20260510131342 | 69 | 239 | 4.0 | 10.0 | 0.00 | 0.44 | 0.01 | 62 | 1046.5 |
| 20260510131329 | 69 | 239 | 5.0 | 10.0 | 0.00 | 0.44 | 0.01 | 62 | 1046.5 |
| 20260510131033 | 70 | 249 | 4.0 | 10.0 | 0.00 | 0.44 | 0.01 | 61 | 1046.4 |
| 20260510131023 | 70 | 230 | 4.0 | 10.0 | 0.00 | 0.44 | 0.01 | 61 | 1046.4 |
| 20260510130702 | 70 | 231 | 4.0 | 10.0 | 0.00 | 0.44 | 0.01 | 61 | 1046.4 |
| 20260510130640 | 70 | 226 | 4.0 | 10.0 | 0.00 | 0.44 | 0.01 | 62 | 1046.5 |
| 20260510130602 | 70 | 227 | 4.0 | 9.0 | 0.00 | 0.44 | 0.01 | 62 | 1046.5 |
| 20260510130500 | 70 | 233 | 4.0 | 9.0 | 0.00 | 0.44 | 0.01 | 63 | 1046.5 |
| 20260510130437 | 70 | 257 | 3.0 | 9.0 | 0.00 | 0.44 | 0.01 | 62 | 1046.5 |
| 20260510130429 | 70 | 257 | 3.0 | 9.0 | 0.00 | 0.44 | 0.01 | 62 | 1046.4 |
| 20260510130147 | 70 | 260 | 4.0 | 9.0 | 0.00 | 0.44 | 0.01 | 62 | 1046.5 |
| 20260510130141 | 70 | 260 | 4.0 | 9.0 | 0.00 | 0.44 | 0.01 | 62 | 1046.5 |
| 20260510125802 | 70 | 252 | 4.0 | 13.0 | 0.00 | 0.44 | 0.01 | 62 | 1046.5 |
| 20260510125752 | 70 | 252 | 4.0 | 13.0 | 0.00 | 0.44 | 0.01 | 62 | 1046.5 |
| 20260510125741 | 70 | 252 | 4.0 | 13.0 | 0.00 | 0.44 | 0.01 | 62 | 1046.5 |
| 20260510125734 | 70 | 253 | 4.0 | 13.0 | 0.00 | 0.44 | 0.01 | 62 | 1046.5 |
| 20260510125400 | 70 | 204 | 5.0 | 13.0 | 0.00 | 0.44 | 0.01 | 61 | 1046.5 |
| 20260510125257 | 71 | 204 | 5.0 | 13.0 | 0.00 | 0.44 | 0.01 | 61 | 1046.5 |
| 20260510125236 | 71 | 204 | 5.0 | 13.0 | 0.00 | 0.44 | 0.01 | 60 | 1046.5 |
| 20260510125226 | 71 | 203 | 5.0 | 13.0 | 0.00 | 0.44 | 0.01 | 60 | 1046.4 |
| 20260510125217 | 71 | 199 | 5.0 | 13.0 | 0.00 | 0.44 | 0.01 | 60 | 1046.4 |
| 20260510124943 | 71 | 208 | 4.0 | 9.0 | 0.00 | 0.44 | 0.01 | 61 | 1046.5 |
| 20260510124936 | 71 | 239 | 4.0 | 9.0 | 0.00 | 0.44 | 0.01 | 60 | 1046.4 |
| 20260510124920 | 71 | 239 | 4.0 | 9.0 | 0.00 | 0.44 | 0.01 | 60 | 1046.4 |
| 20260510124910 | 71 | 239 | 4.0 | 9.0 | 0.00 | 0.44 | 0.01 | 60 | 1046.5 |
| 20260510124642 | 71 | 245 | 4.0 | 9.0 | 0.00 | 0.44 | 0.01 | 60 | 1046.5 |
| 20260510124633 | 71 | 245 | 4.0 | 9.0 | 0.00 | 0.44 | 0.01 | 60 | 1046.5 |
| 20260510124622 | 71 | 235 | 4.0 | 9.0 | 0.00 | 0.44 | 0.01 | 60 | 1046.5 |
| 20260510124132 | 71 | 235 | 4.0 | 9.0 | 0.00 | 0.44 | 0.01 | 60 | 1046.5 |
| 20260510124121 | 71 | 247 | 4.0 | 9.0 | 0.00 | 0.44 | 0.01 | 60 | 1046.4 |
| 20260510124106 | 71 | 265 | 4.0 | 8.0 | 0.00 | 0.44 | 0.01 | 59 | 1046.4 |
| 20260510123841 | 71 | 241 | 4.0 | 9.0 | 0.00 | 0.44 | 0.01 | 58 | 1046.4 |
| 20260510123833 | 71 | 241 | 4.0 | 9.0 | 0.00 | 0.44 | 0.01 | 59 | 1046.4 |
| 20260510123822 | 71 | 235 | 4.0 | 9.0 | 0.00 | 0.44 | 0.01 | 59 | 1046.4 |
| 20260510123813 | 71 | 235 | 4.0 | 9.0 | 0.00 | 0.44 | 0.01 | 59 | 1046.4 |
| 20260510123326 | 71 | 242 | 5.0 | 9.0 | 0.00 | 0.44 | 0.01 | 60 | 1046.4 |
| 20260510123318 | 71 | 242 | 5.0 | 9.0 | 0.00 | 0.44 | 0.01 | 59 | 1046.4 |
| 20260510123302 | 71 | 249 | 5.0 | 9.0 | 0.00 | 0.44 | 0.01 | 59 | 1046.4 |
| 20260510123253 | 71 | 222 | 5.0 | 12.0 | 0.00 | 0.44 | 0.01 | 60 | 1046.4 |
| 20260510123244 | 71 | 248 | 5.0 | 12.0 | 0.00 | 0.44 | 0.01 | 61 | 1046.4 |
| 20260510123015 | 71 | 264 | 4.0 | 12.0 | 0.00 | 0.44 | 0.01 | 61 | 1046.4 |
| 20260510123007 | 71 | 264 | 4.0 | 12.0 | 0.00 | 0.44 | 0.01 | 59 | 1046.5 |
| 20260510122953 | 71 | 262 | 4.0 | 12.0 | 0.00 | 0.44 | 0.01 | 59 | 1046.5 |
| 20260510122226 | 70 | 218 | 5.0 | 12.0 | 0.00 | 0.44 | 0.01 | 60 | 1046.6 |
| 20260510122218 | 70 | 219 | 5.0 | 12.0 | 0.00 | 0.44 | 0.01 | 60 | 1046.6 |
| 20260510122202 | 70 | 249 | 5.0 | 12.0 | 0.00 | 0.44 | 0.01 | 60 | 1046.6 |
| 20260510121843 | 70 | 235 | 6.0 | 13.0 | 0.00 | 0.44 | 0.01 | 60 | 1046.6 |
| 20260510121738 | 70 | 237 | 7.0 | 13.0 | 0.00 | 0.44 | 0.01 | 60 | 1046.6 |
| 20260510121651 | 70 | 237 | 7.0 | 13.0 | 0.00 | 0.44 | 0.01 | 59 | 1046.5 |
| 20260510121641 | 70 | 237 | 7.0 | 13.0 | 0.00 | 0.44 | 0.01 | 59 | 1046.6 |
| 20260510121629 | 70 | 233 | 7.0 | 13.0 | 0.00 | 0.44 | 0.01 | 59 | 1046.6 |
| 20260510121406 | 70 | 242 | 6.0 | 13.0 | 0.00 | 0.44 | 0.01 | 59 | 1046.6 |
| 20260510121133 | 70 | 246 | 5.0 | 13.0 | 0.00 | 0.44 | 0.01 | 60 | 1046.6 |
| 20260510121038 | 70 | 268 | 5.0 | 13.0 | 0.00 | 0.44 | 0.01 | 60 | 1046.7 |
| 20260510120938 | 70 | 253 | 5.0 | 13.0 | 0.00 | 0.44 | 0.01 | 60 | 1046.7 |
| 20260510120838 | 70 | 226 | 5.0 | 13.0 | 0.00 | 0.44 | 0.01 | 60 | 1046.7 |
| 20260510120742 | 70 | 231 | 5.0 | 13.0 | 0.00 | 0.44 | 0.01 | 60 | 1046.7 |
| 20260510120635 | 70 | 249 | 5.0 | 12.0 | 0.00 | 0.44 | 0.01 | 61 | 1046.7 |
| 20260510120537 | 69 | 241 | 5.0 | 12.0 | 0.00 | 0.44 | 0.01 | 61 | 1046.8 |
| 20260510120444 | 69 | 237 | 4.0 | 12.0 | 0.00 | 0.44 | 0.01 | 62 | 1046.7 |
| 20260510120338 | 69 | 200 | 4.0 | 12.0 | 0.00 | 0.44 | 0.01 | 61 | 1046.8 |
| 20260510120237 | 69 | 234 | 5.0 | 12.0 | 0.00 | 0.44 | 0.01 | 60 | 1046.8 |
| 20260510120140 | 69 | 235 | 5.0 | 12.0 | 0.00 | 0.44 | 0.01 | 60 | 1046.9 |
| 20260510120133 | 69 | 234 | 5.0 | 12.0 | 0.00 | 0.44 | 0.01 | 60 | 1046.9 |
| 20260510120036 | 69 | 234 | 5.0 | 12.0 | 0.00 | 0.44 | 0.01 | 60 | 1046.8 |
| 20260510115934 | 69 | 284 | 4.0 | 12.0 | 0.00 | 0.44 | 0.01 | 59 | 1046.9 |
| 20260510115917 | 69 | 267 | 4.0 | 9.0 | 0.00 | 0.44 | 0.01 | 59 | 1046.9 |
| 20260510115903 | 69 | 234 | 5.0 | 9.0 | 0.00 | 0.44 | 0.01 | 60 | 1046.9 |
| 20260510115633 | 69 | 247 | 5.0 | 11.0 | 0.00 | 0.44 | 0.01 | 60 | 1046.9 |
| 20260510115605 | 69 | 243 | 5.0 | 11.0 | 0.00 | 0.44 | 0.01 | 59 | 1046.9 |
| 20260510115558 | 69 | 243 | 6.0 | 11.0 | 0.00 | 0.44 | 0.01 | 59 | 1046.9 |
| 20260510115232 | 68 | 243 | 6.0 | 11.0 | 0.00 | 0.44 | 0.01 | 59 | 1047.0 |
| 20260510115132 | 68 | 237 | 7.0 | 11.0 | 0.00 | 0.44 | 0.01 | 59 | 1046.9 |
| 20260510115029 | 68 | 237 | 6.0 | 11.0 | 0.00 | 0.44 | 0.01 | 59 | 1047.0 |
| 20260510114931 | 68 | 220 | 6.0 | 11.0 | 0.00 | 0.44 | 0.01 | 59 | 1047.0 |
| 20260510114830 | 68 | 230 | 6.0 | 11.0 | 0.00 | 0.44 | 0.01 | 59 | 1047.0 |
| 20260510114810 | 68 | 243 | 6.0 | 11.0 | 0.00 | 0.44 | 0.01 | 60 | 1047.0 |
| 20260510114756 | 68 | 265 | 5.0 | 10.0 | 0.00 | 0.44 | 0.01 | 60 | 1047.0 |
| 20260510114428 | 68 | 270 | 5.0 | 10.0 | 0.00 | 0.44 | 0.01 | 61 | 1047.0 |
| 20260510114328 | 68 | 268 | 5.0 | 10.0 | 0.00 | 0.44 | 0.01 | 61 | 1047.0 |
| 20260510114227 | 68 | 270 | 5.0 | 11.0 | 0.00 | 0.44 | 0.01 | 61 | 1047.1 |
| 20260510114128 | 68 | 254 | 6.0 | 11.0 | 0.00 | 0.44 | 0.01 | 61 | 1047.1 |
| 20260510114027 | 68 | 272 | 6.0 | 15.0 | 0.00 | 0.44 | 0.01 | 61 | 1047.1 |
| 20260510113928 | 68 | 272 | 6.0 | 15.0 | 0.00 | 0.44 | 0.01 | 61 | 1047.1 |
| 20260510113826 | 68 | 272 | 6.0 | 15.0 | 0.00 | 0.44 | 0.01 | 62 | 1047.1 |
| 20260510113726 | 68 | 258 | 6.0 | 15.0 | 0.00 | 0.44 | 0.01 | 62 | 1047.1 |
| 20260510113639 | 68 | 256 | 7.0 | 15.0 | 0.00 | 0.44 | 0.01 | 61 | 1047.1 |
| 20260510113625 | 68 | 257 | 7.0 | 15.0 | 0.00 | 0.44 | 0.01 | 61 | 1047.1 |
| 20260510113526 | 68 | 256 | 7.0 | 15.0 | 0.00 | 0.44 | 0.01 | 61 | 1047.2 |
| 20260510113426 | 68 | 276 | 7.0 | 15.0 | 0.00 | 0.44 | 0.01 | 61 | 1047.1 |
| 20260510113325 | 68 | 275 | 6.0 | 15.0 | 0.00 | 0.44 | 0.01 | 61 | 1047.1 |
| 20260510113224 | 68 | 255 | 6.0 | 15.0 | 0.00 | 0.44 | 0.01 | 61 | 1047.1 |
| 20260510113122 | 68 | 255 | 5.0 | 15.0 | 0.00 | 0.44 | 0.01 | 61 | 1047.1 |
| 20260510113022 | 68 | 252 | 5.0 | 12.0 | 0.00 | 0.44 | 0.01 | 61 | 1047.1 |
| 20260510112922 | 68 | 270 | 5.0 | 12.0 | 0.00 | 0.44 | 0.01 | 61 | 1047.1 |
| 20260510112910 | 68 | 270 | 5.0 | 12.0 | 0.00 | 0.44 | 0.01 | 61 | 1047.1 |
| 20260510112854 | 68 | 276 | 4.0 | 12.0 | 0.00 | 0.44 | 0.01 | 61 | 1047.1 |
| 20260510112618 | 68 | 260 | 4.0 | 12.0 | 0.00 | 0.44 | 0.01 | 62 | 1047.1 |
| 20260510112545 | 68 | 263 | 4.0 | 9.0 | 0.00 | 0.44 | 0.01 | 62 | 1047.0 |
| 20260510112538 | 68 | 262 | 4.0 | 9.0 | 0.00 | 0.44 | 0.01 | 62 | 1047.1 |
| 20260510112214 | 68 | 253 | 3.0 | 9.0 | 0.00 | 0.44 | 0.01 | 62 | 1047.0 |
| 20260510112143 | 68 | 224 | 3.0 | 9.0 | 0.00 | 0.44 | 0.01 | 62 | 1047.0 |
| 20260510112134 | 68 | 223 | 3.0 | 9.0 | 0.00 | 0.44 | 0.01 | 62 | 1047.0 |
| 20260510112128 | 68 | 221 | 3.0 | 9.0 | 0.00 | 0.44 | 0.01 | 62 | 1047.0 |
| 20260510112114 | 68 | 213 | 4.0 | 9.0 | 0.00 | 0.44 | 0.01 | 62 | 1047.0 |
| 20260510112106 | 68 | 210 | 3.0 | 9.0 | 0.00 | 0.44 | 0.01 | 61 | 1047.0 |
| 20260510111837 | 68 | 264 | 3.0 | 9.0 | 0.00 | 0.44 | 0.01 | 61 | 1047.0 |
| 20260510111541 | 68 | 252 | 2.0 | 8.0 | 0.00 | 0.44 | 0.01 | 61 | 1047.0 |
| 20260510111533 | 68 | 293 | 2.0 | 8.0 | 0.00 | 0.44 | 0.01 | 60 | 1047.0 |
| 20260510111211 | 68 | 302 | 3.0 | 8.0 | 0.00 | 0.44 | 0.01 | 62 | 1047.1 |
| 20260510111112 | 68 | 302 | 2.0 | 8.0 | 0.00 | 0.44 | 0.01 | 62 | 1047.2 |
| 20260510111038 | 68 | 302 | 2.0 | 8.0 | 0.00 | 0.44 | 0.01 | 64 | 1047.2 |
| 20260510111029 | 68 | 293 | 2.0 | 8.0 | 0.00 | 0.44 | 0.01 | 68 | 1047.2 |
| 20260510110711 | 68 | 70 | 2.0 | 5.0 | 0.00 | 0.44 | 0.01 | 68 | 1047.1 |
| 20260510110638 | 68 | 70 | 2.0 | 5.0 | 0.00 | 0.44 | 0.01 | 68 | 1047.1 |
| 20260510110629 | 68 | 70 | 2.0 | 5.0 | 0.00 | 0.44 | 0.01 | 68 | 1047.1 |
| 20260510110308 | 68 | 70 | 2.0 | 5.0 | 0.00 | 0.44 | 0.01 | 69 | 1047.1 |
| 20260510110208 | 68 | 69 | 2.0 | 5.0 | 0.00 | 0.44 | 0.01 | 69 | 1047.0 |
| 20260510110149 | 68 | 69 | 2.0 | 5.0 | 0.00 | 0.44 | 0.01 | 69 | 1047.1 |
| 20260510110142 | 68 | 70 | 2.0 | 5.0 | 0.00 | 0.44 | 0.01 | 70 | 1047.1 |
| 20260510110136 | 68 | 70 | 2.0 | 5.0 | 0.00 | 0.44 | 0.01 | 70 | 1047.1 |
| 20260510110122 | 68 | 70 | 1.0 | 5.0 | 0.00 | 0.44 | 0.01 | 70 | 1047.1 |
| 20260510105852 | 68 | 70 | 1.0 | 5.0 | 0.00 | 0.44 | 0.01 | 71 | 1047.1 |
| 20260510105610 | 67 | 70 | 2.0 | 4.0 | 0.00 | 0.44 | 0.01 | 70 | 1047.1 |
| 20260510105503 | 67 | 70 | 2.0 | 5.0 | 0.00 | 0.44 | 0.01 | 69 | 1047.1 |
| 20260510105402 | 67 | 70 | 2.0 | 6.0 | 0.00 | 0.44 | 0.01 | 69 | 1047.2 |
| 20260510105306 | 67 | 70 | 2.0 | 6.0 | 0.00 | 0.44 | 0.01 | 70 | 1047.2 |
| 20260510105201 | 67 | 70 | 3.0 | 6.0 | 0.00 | 0.44 | 0.01 | 70 | 1047.2 |
| 20260510105101 | 67 | 70 | 3.0 | 6.0 | 0.00 | 0.44 | 0.01 | 70 | 1047.2 |
| 20260510105002 | 67 | 70 | 3.0 | 6.0 | 0.00 | 0.44 | 0.01 | 69 | 1047.2 |
| 20260510104900 | 67 | 70 | 3.0 | 6.0 | 0.00 | 0.44 | 0.01 | 69 | 1047.2 |
| 20260510104800 | 67 | 70 | 3.0 | 6.0 | 0.00 | 0.44 | 0.01 | 69 | 1047.2 |
| 20260510104659 | 67 | 72 | 3.0 | 6.0 | 0.00 | 0.44 | 0.01 | 69 | 1047.2 |
| 20260510104634 | 67 | 70 | 3.0 | 6.0 | 0.00 | 0.44 | 0.01 | 69 | 1047.3 |
| 20260510104600 | 67 | 70 | 3.0 | 6.0 | 0.00 | 0.44 | 0.01 | 69 | 1047.3 |
| 20260510104500 | 67 | 70 | 3.0 | 6.0 | 0.00 | 0.44 | 0.01 | 69 | 1047.3 |
| 20260510104359 | 67 | 71 | 3.0 | 5.0 | 0.00 | 0.44 | 0.01 | 70 | 1047.3 |
| 20260510104256 | 66 | 73 | 3.0 | 5.0 | 0.00 | 0.44 | 0.01 | 71 | 1047.3 |
| 20260510104155 | 66 | 73 | 3.0 | 5.0 | 0.00 | 0.44 | 0.01 | 71 | 1047.4 |
| 20260510104131 | 66 | 73 | 3.0 | 7.0 | 0.00 | 0.44 | 0.01 | 70 | 1047.4 |
| 20260510104056 | 66 | 73 | 3.0 | 8.0 | 0.00 | 0.44 | 0.01 | 70 | 1047.4 |
| 20260510103956 | 66 | 73 | 3.0 | 8.0 | 0.00 | 0.44 | 0.01 | 70 | 1047.4 |
| 20260510103856 | 66 | 73 | 3.0 | 8.0 | 0.00 | 0.44 | 0.01 | 70 | 1047.4 |
| 20260510103755 | 66 | 73 | 4.0 | 8.0 | 0.00 | 0.44 | 0.01 | 70 | 1047.4 |
| 20260510103655 | 66 | 73 | 4.0 | 8.0 | 0.00 | 0.44 | 0.01 | 69 | 1047.4 |
| 20260510103639 | 66 | 74 | 4.0 | 8.0 | 0.00 | 0.44 | 0.01 | 69 | 1047.5 |
| 20260510103626 | 66 | 73 | 4.0 | 8.0 | 0.00 | 0.44 | 0.01 | 69 | 1047.5 |
| 20260510103618 | 66 | 73 | 4.0 | 8.0 | 0.00 | 0.44 | 0.01 | 69 | 1047.4 |
| 20260510103337 | 66 | 73 | 4.0 | 8.0 | 0.00 | 0.44 | 0.01 | 69 | 1047.5 |
| 20260510103329 | 67 | 73 | 4.0 | 8.0 | 0.00 | 0.44 | 0.01 | 71 | 1047.4 |
| 20260510103318 | 67 | 80 | 3.0 | 8.0 | 0.00 | 0.44 | 0.01 | 71 | 1047.4 |
| 20260510102956 | 67 | 81 | 3.0 | 8.0 | 0.00 | 0.44 | 0.01 | 71 | 1047.4 |
| 20260510102855 | 67 | 82 | 3.0 | 8.0 | 0.00 | 0.44 | 0.01 | 70 | 1047.4 |
| 20260510102757 | 67 | 115 | 3.0 | 8.0 | 0.00 | 0.44 | 0.01 | 70 | 1047.4 |
| 20260510102655 | 67 | 152 | 3.0 | 8.0 | 0.00 | 0.44 | 0.01 | 71 | 1047.3 |
| 20260510102632 | 67 | 152 | 3.0 | 8.0 | 0.00 | 0.44 | 0.01 | 71 | 1047.4 |
| 20260510102555 | 67 | 152 | 3.0 | 8.0 | 0.00 | 0.44 | 0.01 | 72 | 1047.4 |
| 20260510102526 | 67 | 153 | 2.0 | 8.0 | 0.00 | 0.44 | 0.01 | 73 | 1047.4 |
| 20260510102518 | 67 | 200 | 3.0 | 9.0 | 0.00 | 0.44 | 0.01 | 73 | 1047.3 |
| 20260510102237 | 67 | 216 | 3.0 | 9.0 | 0.00 | 0.44 | 0.01 | 74 | 1047.3 |
| 20260510102227 | 67 | 216 | 3.0 | 9.0 | 0.00 | 0.44 | 0.01 | 73 | 1047.4 |
| 20260510102218 | 67 | 216 | 3.0 | 9.0 | 0.00 | 0.44 | 0.01 | 72 | 1047.4 |
| 20260510101856 | 67 | 216 | 4.0 | 9.0 | 0.00 | 0.44 | 0.01 | 71 | 1047.4 |
| 20260510101756 | 67 | 216 | 4.0 | 9.0 | 0.00 | 0.44 | 0.01 | 72 | 1047.4 |
| 20260510101632 | 67 | 218 | 4.0 | 9.0 | 0.00 | 0.44 | 0.01 | 72 | 1047.5 |
| 20260510101547 | 67 | 219 | 4.0 | 9.0 | 0.00 | 0.44 | 0.01 | 72 | 1047.5 |
| 20260510101448 | 67 | 219 | 3.0 | 9.0 | 0.00 | 0.44 | 0.01 | 72 | 1047.5 |
| 20260510101347 | 68 | 237 | 3.0 | 9.0 | 0.00 | 0.44 | 0.01 | 71 | 1047.5 |
| 20260510101247 | 68 | 151 | 3.0 | 6.0 | 0.00 | 0.44 | 0.01 | 70 | 1047.5 |
| 20260510101131 | 68 | 147 | 2.0 | 6.0 | 0.00 | 0.44 | 0.01 | 70 | 1047.5 |
| 20260510101048 | 68 | 201 | 2.0 | 6.0 | 0.00 | 0.44 | 0.01 | 70 | 1047.5 |
| 20260510100947 | 68 | 201 | 2.0 | 6.0 | 0.00 | 0.44 | 0.01 | 69 | 1047.5 |
| 20260510100847 | 68 | 200 | 2.0 | 6.0 | 0.00 | 0.44 | 0.01 | 69 | 1047.5 |
| 20260510100748 | 68 | 265 | 2.0 | 6.0 | 0.00 | 0.44 | 0.01 | 69 | 1047.5 |
| 20260510100648 | 68 | 266 | 3.0 | 10.0 | 0.00 | 0.44 | 0.01 | 69 | 1047.5 |
| 20260510100632 | 68 | 266 | 3.0 | 15.0 | 0.00 | 0.44 | 0.01 | 69 | 1047.4 |
| 20260510100618 | 68 | 266 | 3.0 | 15.0 | 0.00 | 0.44 | 0.01 | 69 | 1047.4 |
| 20260510100611 | 68 | 266 | 4.0 | 21.0 | 0.00 | 0.44 | 0.01 | 69 | 1047.5 |
| 20260510100247 | 68 | 266 | 5.0 | 21.0 | 0.00 | 0.44 | 0.01 | 68 | 1047.5 |
| 20260510100132 | 68 | 266 | 5.0 | 21.0 | 0.00 | 0.44 | 0.01 | 69 | 1047.5 |
| 20260510100122 | 68 | 266 | 5.0 | 21.0 | 0.00 | 0.44 | 0.01 | 69 | 1047.5 |
| 20260510100113 | 68 | 266 | 6.0 | 21.0 | 0.00 | 0.44 | 0.01 | 69 | 1047.5 |
| 20260510095748 | 69 | 268 | 6.0 | 21.0 | 0.00 | 0.44 | 0.01 | 70 | 1047.4 |
| 20260510095648 | 69 | 251 | 6.0 | 21.0 | 0.00 | 0.44 | 0.01 | 71 | 1047.4 |
| 20260510095632 | 69 | 241 | 5.0 | 21.0 | 0.00 | 0.44 | 0.01 | 71 | 1047.3 |
| 20260510095547 | 69 | 18 | 5.0 | 21.0 | 0.00 | 0.44 | 0.01 | 71 | 1047.3 |
| 20260510095448 | 69 | 183 | 5.0 | 14.0 | 0.00 | 0.44 | 0.01 | 72 | 1047.3 |
| 20260510095348 | 69 | 170 | 5.0 | 16.0 | 0.00 | 0.44 | 0.01 | 71 | 1047.3 |
| 20260510095247 | 69 | 172 | 6.0 | 16.0 | 0.00 | 0.44 | 0.01 | 72 | 1047.3 |
| 20260510095147 | 69 | 198 | 6.0 | 16.0 | 0.00 | 0.44 | 0.01 | 72 | 1047.4 |
| 20260510095131 | 69 | 197 | 6.0 | 16.0 | 0.00 | 0.44 | 0.01 | 72 | 1047.4 |
| 20260510095053 | 69 | 197 | 6.0 | 16.0 | 0.00 | 0.44 | 0.01 | 72 | 1047.4 |
| 20260510094947 | 69 | 133 | 6.0 | 16.0 | 0.00 | 0.44 | 0.01 | 71 | 1047.4 |
| 20260510094849 | 69 | 133 | 6.0 | 16.0 | 0.00 | 0.44 | 0.01 | 71 | 1047.3 |
| 20260510094839 | 69 | 250 | 6.0 | 16.0 | 0.00 | 0.44 | 0.01 | 71 | 1047.3 |
| 20260510094833 | 69 | 170 | 6.0 | 16.0 | 0.00 | 0.44 | 0.01 | 70 | 1047.4 |
| 20260510094825 | 69 | 230 | 6.0 | 16.0 | 0.00 | 0.44 | 0.01 | 70 | 1047.4 |
| 20260510094812 | 69 | 184 | 6.0 | 16.0 | 0.00 | 0.44 | 0.01 | 69 | 1047.4 |
| 20260510094804 | 69 | 231 | 5.0 | 16.0 | 0.00 | 0.44 | 0.01 | 68 | 1047.4 |
| 20260510094536 | 70 | 192 | 5.0 | 11.0 | 0.00 | 0.44 | 0.01 | 69 | 1047.5 |
| 20260510094309 | 69 | 237 | 5.0 | 10.0 | 0.00 | 0.44 | 0.01 | 71 | 1047.4 |
| 20260510094021 | 69 | 207 | 5.0 | 10.0 | 0.00 | 0.44 | 0.01 | 71 | 1047.4 |
| 20260510094008 | 69 | 206 | 5.0 | 10.0 | 0.00 | 0.44 | 0.01 | 71 | 1047.3 |
| 20260510093643 | 69 | 255 | 6.0 | 10.0 | 0.00 | 0.44 | 0.01 | 71 | 1047.4 |
| 20260510093632 | 69 | 255 | 6.0 | 10.0 | 0.00 | 0.44 | 0.01 | 70 | 1047.3 |
| 20260510093543 | 69 | 231 | 6.0 | 10.0 | 0.00 | 0.44 | 0.01 | 70 | 1047.3 |
| 20260510093453 | 69 | 224 | 6.0 | 10.0 | 0.00 | 0.44 | 0.01 | 70 | 1047.3 |
| 20260510093442 | 69 | 201 | 6.0 | 10.0 | 0.00 | 0.44 | 0.01 | 70 | 1047.3 |
| 20260510093431 | 69 | 191 | 6.0 | 10.0 | 0.00 | 0.44 | 0.01 | 70 | 1047.4 |
| 20260510093414 | 69 | 253 | 6.0 | 10.0 | 0.00 | 0.44 | 0.01 | 70 | 1047.3 |
| 20260510093150 | 69 | 254 | 5.0 | 10.0 | 0.00 | 0.44 | 0.01 | 69 | 1047.3 |
| 20260510093132 | 69 | 278 | 5.0 | 10.0 | 0.00 | 0.44 | 0.01 | 69 | 1047.3 |
| 20260510092906 | 69 | 216 | 4.0 | 10.0 | 0.00 | 0.44 | 0.01 | 70 | 1047.4 |
| 20260510092636 | 69 | 228 | 4.0 | 10.0 | 0.00 | 0.44 | 0.01 | 70 | 1047.3 |
| 20260510092543 | 69 | 212 | 4.0 | 10.0 | 0.00 | 0.44 | 0.01 | 71 | 1047.3 |
| 20260510092444 | 69 | 236 | 3.0 | 10.0 | 0.00 | 0.44 | 0.01 | 71 | 1047.4 |
| 20260510092344 | 68 | 233 | 3.0 | 9.0 | 0.00 | 0.44 | 0.01 | 71 | 1047.4 |
| 20260510092243 | 68 | 248 | 3.0 | 8.0 | 0.00 | 0.44 | 0.01 | 71 | 1047.4 |
| 20260510092133 | 68 | 248 | 3.0 | 8.0 | 0.00 | 0.44 | 0.01 | 72 | 1047.4 |
| 20260510092048 | 68 | 249 | 3.0 | 8.0 | 0.00 | 0.44 | 0.01 | 71 | 1047.4 |
| 20260510091944 | 68 | 242 | 4.0 | 8.0 | 0.00 | 0.44 | 0.01 | 71 | 1047.4 |
| 20260510091843 | 68 | 239 | 4.0 | 8.0 | 0.00 | 0.44 | 0.01 | 71 | 1047.4 |
| 20260510091739 | 68 | 239 | 4.0 | 10.0 | 0.00 | 0.44 | 0.01 | 71 | 1047.4 |
| 20260510091633 | 68 | 239 | 5.0 | 10.0 | 0.00 | 0.44 | 0.01 | 72 | 1047.4 |
| 20260510091540 | 68 | 239 | 6.0 | 11.0 | 0.00 | 0.44 | 0.01 | 72 | 1047.4 |
| 20260510091439 | 68 | 239 | 6.0 | 12.0 | 0.00 | 0.44 | 0.01 | 73 | 1047.4 |
| 20260510091339 | 68 | 246 | 5.0 | 12.0 | 0.00 | 0.44 | 0.01 | 73 | 1047.4 |
| 20260510091240 | 67 | 251 | 5.0 | 12.0 | 0.00 | 0.44 | 0.01 | 73 | 1047.4 |
| 20260510091132 | 67 | 248 | 5.0 | 12.0 | 0.00 | 0.44 | 0.01 | 73 | 1047.5 |
| 20260510091040 | 67 | 255 | 5.0 | 12.0 | 0.00 | 0.44 | 0.01 | 73 | 1047.5 |
| 20260510090939 | 67 | 262 | 6.0 | 12.0 | 0.00 | 0.44 | 0.01 | 74 | 1047.5 |
| 20260510090838 | 67 | 218 | 6.0 | 12.0 | 0.00 | 0.44 | 0.01 | 74 | 1047.5 |
| 20260510090733 | 67 | 231 | 6.0 | 12.0 | 0.00 | 0.44 | 0.01 | 74 | 1047.5 |
| 20260510090640 | 67 | 245 | 5.0 | 12.0 | 0.00 | 0.44 | 0.01 | 75 | 1047.5 |
| 20260510090633 | 67 | 246 | 5.0 | 12.0 | 0.00 | 0.44 | 0.01 | 75 | 1047.5 |
| 20260510090532 | 67 | 278 | 5.0 | 12.0 | 0.00 | 0.44 | 0.01 | 75 | 1047.5 |
| 20260510090430 | 67 | 209 | 6.0 | 10.0 | 0.00 | 0.44 | 0.01 | 73 | 1047.6 |
| 20260510090330 | 67 | 207 | 6.0 | 10.0 | 0.00 | 0.44 | 0.01 | 73 | 1047.6 |
| 20260510090229 | 67 | 208 | 6.0 | 10.0 | 0.00 | 0.44 | 0.01 | 75 | 1047.6 |
| 20260510090132 | 67 | 251 | 6.0 | 12.0 | 0.00 | 0.44 | 0.01 | 74 | 1047.5 |
| 20260510090112 | 67 | 229 | 7.0 | 12.0 | 0.00 | 0.44 | 0.01 | 75 | 1047.6 |
| 20260510085729 | 67 | 234 | 6.0 | 12.0 | 0.00 | 0.44 | 0.01 | 75 | 1047.5 |
| 20260510085638 | 67 | 252 | 7.0 | 12.0 | 0.00 | 0.44 | 0.01 | 75 | 1047.5 |
| 20260510085624 | 67 | 179 | 7.0 | 12.0 | 0.00 | 0.44 | 0.01 | 75 | 1047.5 |
| 20260510085614 | 67 | 221 | 6.0 | 12.0 | 0.00 | 0.44 | 0.01 | 76 | 1047.6 |
| 20260510085343 | 66 | 247 | 5.0 | 12.0 | 0.00 | 0.44 | 0.01 | 75 | 1047.5 |
| 20260510085323 | 66 | 236 | 4.0 | 11.0 | 0.00 | 0.44 | 0.01 | 76 | 1047.5 |
| 20260510085051 | 66 | 239 | 3.0 | 10.0 | 0.00 | 0.44 | 0.01 | 76 | 1047.5 |
| 20260510084717 | 66 | 247 | 2.0 | 10.0 | 0.00 | 0.44 | 0.01 | 76 | 1047.5 |
| 20260510084619 | 66 | 260 | 1.0 | 9.0 | 0.00 | 0.44 | 0.01 | 77 | 1047.6 |
| 20260510084509 | 66 | 260 | 1.0 | 9.0 | 0.00 | 0.44 | 0.01 | 78 | 1047.6 |
| 20260510084438 | 66 | 195 | 1.0 | 5.0 | 0.00 | 0.44 | 0.01 | 78 | 1047.6 |
| 20260510084428 | 65 | 84 | 1.0 | 4.0 | 0.00 | 0.44 | 0.01 | 79 | 1047.5 |
| 20260510084124 | 65 | 83 | 1.0 | 6.0 | 0.00 | 0.44 | 0.01 | 80 | 1047.6 |
| 20260510084115 | 65 | 84 | 2.0 | 6.0 | 0.00 | 0.44 | 0.01 | 80 | 1047.5 |
| 20260510084102 | 65 | 85 | 2.0 | 6.0 | 0.00 | 0.44 | 0.01 | 80 | 1047.6 |
| 20260510084053 | 65 | 84 | 2.0 | 6.0 | 0.00 | 0.44 | 0.01 | 80 | 1047.6 |
| 20260510084045 | 65 | 84 | 2.0 | 6.0 | 0.00 | 0.44 | 0.01 | 80 | 1047.6 |
| 20260510083504 | 64 | 84 | 2.0 | 6.0 | 0.00 | 0.44 | 0.01 | 80 | 1047.6 |
| 20260510083403 | 64 | 84 | 2.0 | 6.0 | 0.00 | 0.44 | 0.01 | 79 | 1047.6 |
| 20260510083301 | 64 | 84 | 2.0 | 6.0 | 0.00 | 0.44 | 0.01 | 80 | 1047.6 |
| 20260510083202 | 64 | 84 | 2.0 | 6.0 | 0.00 | 0.44 | 0.01 | 80 | 1047.6 |
| 20260510083101 | 64 | 83 | 2.0 | 5.0 | 0.00 | 0.44 | 0.01 | 80 | 1047.6 |
| 20260510083001 | 64 | 84 | 2.0 | 5.0 | 0.00 | 0.44 | 0.01 | 81 | 1047.6 |
| 20260510082902 | 64 | 85 | 2.0 | 5.0 | 0.00 | 0.44 | 0.01 | 82 | 1047.6 |
| 20260510082801 | 64 | 85 | 2.0 | 5.0 | 0.00 | 0.44 | 0.01 | 82 | 1047.6 |
| 20260510082700 | 64 | 79 | 2.0 | 5.0 | 0.00 | 0.44 | 0.01 | 83 | 1047.6 |
| 20260510082615 | 64 | 79 | 2.0 | 5.0 | 0.00 | 0.44 | 0.01 | 83 | 1047.6 |
| 20260510082559 | 64 | 79 | 2.0 | 5.0 | 0.00 | 0.44 | 0.01 | 83 | 1047.6 |
| 20260510082457 | 63 | 79 | 2.0 | 5.0 | 0.00 | 0.44 | 0.01 | 83 | 1047.6 |
| 20260510082424 | 63 | 79 | 2.0 | 5.0 | 0.00 | 0.44 | 0.01 | 84 | 1047.6 |
| 20260510082415 | 63 | 79 | 2.0 | 5.0 | 0.00 | 0.44 | 0.01 | 84 | 1047.6 |
| 20260510082112 | 63 | 79 | 3.0 | 7.0 | 0.00 | 0.44 | 0.01 | 83 | 1047.5 |
| 20260510082051 | 63 | 78 | 3.0 | 7.0 | 0.00 | 0.44 | 0.01 | 83 | 1047.5 |
| 20260510081951 | 62 | 79 | 3.0 | 7.0 | 0.00 | 0.44 | 0.01 | 83 | 1047.6 |
| 20260510081849 | 62 | 79 | 3.0 | 7.0 | 0.00 | 0.44 | 0.01 | 84 | 1047.6 |
| 20260510081747 | 62 | 79 | 3.0 | 7.0 | 0.00 | 0.44 | 0.01 | 84 | 1047.6 |
| 20260510081647 | 62 | 79 | 4.0 | 7.0 | 0.00 | 0.44 | 0.01 | 84 | 1047.6 |
| 20260510081612 | 62 | 79 | 4.0 | 7.0 | 0.00 | 0.44 | 0.01 | 85 | 1047.6 |
| 20260510081547 | 62 | 79 | 4.0 | 7.0 | 0.00 | 0.44 | 0.01 | 85 | 1047.6 |
| 20260510081447 | 62 | 79 | 4.0 | 7.0 | 0.00 | 0.44 | 0.01 | 85 | 1047.7 |
| 20260510081411 | 62 | 79 | 4.0 | 9.0 | 0.00 | 0.44 | 0.01 | 85 | 1047.7 |
| 20260510081401 | 62 | 77 | 4.0 | 9.0 | 0.00 | 0.44 | 0.01 | 85 | 1047.7 |
| 20260510081112 | 62 | 60 | 4.0 | 9.0 | 0.00 | 0.44 | 0.01 | 85 | 1047.7 |
| 20260510081042 | 62 | 60 | 4.0 | 9.0 | 0.00 | 0.44 | 0.01 | 85 | 1047.7 |
| 20260510080941 | 62 | 60 | 4.0 | 9.0 | 0.00 | 0.44 | 0.01 | 85 | 1047.7 |
| 20260510080841 | 62 | 60 | 4.0 | 9.0 | 0.00 | 0.44 | 0.01 | 85 | 1047.7 |
| 20260510080735 | 62 | 60 | 4.0 | 9.0 | 0.00 | 0.44 | 0.01 | 85 | 1047.7 |
| 20260510080635 | 62 | 57 | 4.0 | 9.0 | 0.00 | 0.44 | 0.01 | 85 | 1047.7 |
| 20260510080610 | 62 | 56 | 4.0 | 9.0 | 0.00 | 0.44 | 0.01 | 85 | 1047.7 |
| 20260510080559 | 62 | 57 | 3.0 | 9.0 | 0.00 | 0.44 | 0.01 | 85 | 1047.7 |
| 20260510080551 | 62 | 56 | 3.0 | 9.0 | 0.00 | 0.44 | 0.01 | 85 | 1047.7 |
| 20260510080539 | 62 | 114 | 3.0 | 7.0 | 0.00 | 0.44 | 0.01 | 85 | 1047.7 |
| 20260510080312 | 62 | 116 | 3.0 | 7.0 | 0.00 | 0.44 | 0.01 | 86 | 1047.7 |
| 20260510080300 | 62 | 131 | 3.0 | 7.0 | 0.00 | 0.44 | 0.01 | 86 | 1047.7 |
| 20260510075956 | 62 | 132 | 3.0 | 7.0 | 0.00 | 0.44 | 0.01 | 86 | 1047.6 |
| 20260510075942 | 62 | 359 | 2.0 | 6.0 | 0.00 | 0.44 | 0.01 | 86 | 1047.6 |
| 20260510075931 | 62 | 344 | 2.0 | 6.0 | 0.00 | 0.44 | 0.01 | 86 | 1047.6 |
| 20260510075918 | 62 | 343 | 2.0 | 6.0 | 0.00 | 0.44 | 0.01 | 86 | 1047.6 |
| 20260510075653 | 62 | 343 | 2.0 | 6.0 | 0.00 | 0.44 | 0.01 | 86 | 1047.6 |
| 20260510075330 | 61 | 342 | 2.0 | 6.0 | 0.00 | 0.44 | 0.01 | 86 | 1047.6 |
| 20260510075229 | 61 | 341 | 2.0 | 6.0 | 0.00 | 0.44 | 0.01 | 86 | 1047.6 |
| 20260510075106 | 61 | 337 | 2.0 | 4.0 | 0.00 | 0.44 | 0.01 | 86 | 1047.6 |
| 20260510075029 | 61 | 337 | 1.0 | 4.0 | 0.00 | 0.44 | 0.01 | 87 | 1047.6 |
| 20260510074929 | 61 | 337 | 1.0 | 4.0 | 0.00 | 0.44 | 0.01 | 87 | 1047.6 |
| 20260510074829 | 61 | 337 | 1.0 | 4.0 | 0.00 | 0.44 | 0.01 | 87 | 1047.6 |
| 20260510074818 | 61 | 337 | 2.0 | 4.0 | 0.00 | 0.44 | 0.01 | 87 | 1047.6 |
| 20260510074758 | 61 | 337 | 2.0 | 4.0 | 0.00 | 0.44 | 0.01 | 87 | 1047.6 |
| 20260510074429 | 61 | 337 | 2.0 | 4.0 | 0.00 | 0.44 | 0.01 | 88 | 1047.6 |
| 20260510074356 | 61 | 332 | 2.0 | 4.0 | 0.00 | 0.44 | 0.01 | 88 | 1047.6 |
| 20260510074348 | 61 | 332 | 2.0 | 4.0 | 0.00 | 0.44 | 0.01 | 87 | 1047.6 |
| 20260510074106 | 60 | 332 | 2.0 | 4.0 | 0.00 | 0.44 | 0.01 | 87 | 1047.6 |
| 20260510074033 | 60 | 332 | 2.0 | 4.0 | 0.00 | 0.44 | 0.01 | 87 | 1047.6 |
| 20260510073933 | 60 | 332 | 2.0 | 4.0 | 0.00 | 0.44 | 0.01 | 87 | 1047.6 |
| 20260510073924 | 60 | 334 | 2.0 | 4.0 | 0.00 | 0.44 | 0.01 | 87 | 1047.6 |
| 20260510073918 | 60 | 330 | 1.0 | 4.0 | 0.00 | 0.44 | 0.01 | 87 | 1047.6 |
| 20260510073853 | 60 | 330 | 1.0 | 4.0 | 0.00 | 0.44 | 0.01 | 87 | 1047.6 |
| 20260510073842 | 60 | 330 | 1.0 | 4.0 | 0.00 | 0.44 | 0.01 | 87 | 1047.6 |
| 20260510073616 | 60 | 329 | 1.0 | 3.0 | 0.00 | 0.44 | 0.01 | 88 | 1047.6 |
| 20260510073606 | 60 | 329 | 1.0 | 3.0 | 0.00 | 0.44 | 0.01 | 89 | 1047.5 |
| 20260510073334 | 60 | 329 | 1.0 | 3.0 | 0.00 | 0.44 | 0.01 | 89 | 1047.5 |
| 20260510073325 | 60 | 329 | 1.0 | 3.0 | 0.00 | 0.44 | 0.01 | 89 | 1047.5 |
| 20260510073318 | 60 | 329 | 1.0 | 3.0 | 0.00 | 0.44 | 0.01 | 89 | 1047.5 |
| 20260510073050 | 59 | 329 | 1.0 | 3.0 | 0.00 | 0.44 | 0.01 | 89 | 1047.5 |
| 20260510072819 | 59 | 329 | 1.0 | 4.0 | 0.00 | 0.44 | 0.01 | 89 | 1047.5 |
| 20260510072807 | 59 | 329 | 2.0 | 4.0 | 0.00 | 0.44 | 0.01 | 90 | 1047.5 |
| 20260510072227 | 59 | 328 | 2.0 | 4.0 | 0.00 | 0.44 | 0.01 | 90 | 1047.4 |
| 20260510072203 | 58 | 329 | 2.0 | 4.0 | 0.00 | 0.44 | 0.01 | 90 | 1047.5 |
| 20260510072155 | 58 | 328 | 2.0 | 4.0 | 0.00 | 0.44 | 0.01 | 90 | 1047.5 |
| 20260510072144 | 58 | 329 | 2.0 | 5.0 | 0.00 | 0.44 | 0.01 | 90 | 1047.5 |
| 20260510072130 | 58 | 329 | 2.0 | 5.0 | 0.00 | 0.44 | 0.01 | 90 | 1047.5 |
| 20260510071904 | 58 | 329 | 3.0 | 5.0 | 0.00 | 0.44 | 0.01 | 90 | 1047.4 |
| 20260510071609 | 58 | 329 | 3.0 | 5.0 | 0.00 | 0.44 | 0.01 | 90 | 1047.5 |
| 20260510071520 | 58 | 329 | 3.0 | 5.0 | 0.00 | 0.44 | 0.01 | 90 | 1047.5 |
| 20260510071420 | 58 | 329 | 3.0 | 5.0 | 0.00 | 0.44 | 0.01 | 89 | 1047.4 |
| 20260510071319 | 57 | 329 | 3.0 | 5.0 | 0.00 | 0.44 | 0.01 | 89 | 1047.4 |
| 20260510071219 | 57 | 329 | 3.0 | 5.0 | 0.00 | 0.44 | 0.01 | 90 | 1047.4 |
| 20260510071117 | 57 | 331 | 3.0 | 5.0 | 0.00 | 0.44 | 0.01 | 90 | 1047.5 |
| 20260510071106 | 57 | 329 | 3.0 | 5.0 | 0.00 | 0.44 | 0.01 | 90 | 1047.5 |
| 20260510071017 | 57 | 328 | 3.0 | 5.0 | 0.00 | 0.44 | 0.01 | 90 | 1047.4 |
| 20260510070917 | 57 | 325 | 3.0 | 5.0 | 0.00 | 0.44 | 0.01 | 90 | 1047.5 |
| 20260510070815 | 57 | 324 | 3.0 | 5.0 | 0.00 | 0.44 | 0.01 | 90 | 1047.5 |
| 20260510070753 | 57 | 324 | 3.0 | 5.0 | 0.00 | 0.44 | 0.01 | 90 | 1047.5 |
| 20260510070737 | 57 | 324 | 3.0 | 5.0 | 0.00 | 0.44 | 0.01 | 90 | 1047.4 |
| 20260510070424 | 57 | 317 | 3.0 | 5.0 | 0.00 | 0.44 | 0.01 | 90 | 1047.4 |
| 20260510070415 | 57 | 317 | 3.0 | 5.0 | 0.00 | 0.44 | 0.01 | 90 | 1047.5 |
| 20260510070402 | 57 | 312 | 3.0 | 4.0 | 0.00 | 0.44 | 0.01 | 91 | 1047.4 |
| 20260510070346 | 57 | 311 | 3.0 | 4.0 | 0.00 | 0.44 | 0.01 | 91 | 1047.4 |
| 20260510065803 | 57 | 310 | 2.0 | 4.0 | 0.00 | 0.44 | 0.01 | 92 | 1047.5 |
| 20260510065742 | 57 | 308 | 2.0 | 4.0 | 0.00 | 0.44 | 0.01 | 92 | 1047.4 |
| 20260510065725 | 57 | 308 | 2.0 | 4.0 | 0.00 | 0.44 | 0.01 | 92 | 1047.4 |
| 20260510065405 | 57 | 299 | 2.0 | 3.0 | 0.00 | 0.44 | 0.01 | 92 | 1047.4 |
| 20260510065343 | 57 | 299 | 2.0 | 3.0 | 0.00 | 0.44 | 0.01 | 93 | 1047.4 |
| 20260510065335 | 57 | 299 | 1.0 | 3.0 | 0.00 | 0.44 | 0.01 | 93 | 1047.4 |
| 20260510065106 | 57 | 299 | 1.0 | 3.0 | 0.00 | 0.44 | 0.01 | 93 | 1047.4 |
| 20260510065044 | 57 | 299 | 1.0 | 3.0 | 0.00 | 0.44 | 0.01 | 93 | 1047.4 |
| 20260510065034 | 57 | 299 | 1.0 | 3.0 | 0.00 | 0.44 | 0.01 | 93 | 1047.4 |
| 20260510064739 | 57 | 299 | 1.0 | 2.0 | 0.00 | 0.44 | 0.01 | 93 | 1047.4 |
| 20260510064724 | 56 | 299 | 1.0 | 2.0 | 0.00 | 0.44 | 0.01 | 93 | 1047.3 |
| 20260510064711 | 56 | 299 | 1.0 | 2.0 | 0.00 | 0.44 | 0.01 | 93 | 1047.4 |
| 20260510064701 | 56 | 299 | 1.0 | 3.0 | 0.00 | 0.44 | 0.01 | 93 | 1047.4 |
| 20260510064653 | 56 | 299 | 1.0 | 3.0 | 0.00 | 0.44 | 0.01 | 93 | 1047.4 |
| 20260510064631 | 56 | 299 | 1.0 | 3.0 | 0.00 | 0.44 | 0.01 | 93 | 1047.4 |
| 20260510064404 | 56 | 299 | 1.0 | 3.0 | 0.00 | 0.44 | 0.01 | 93 | 1047.3 |
| 20260510064132 | 55 | 298 | 1.0 | 3.0 | 0.00 | 0.44 | 0.01 | 93 | 1047.4 |
| 20260510063621 | 55 | 297 | 1.0 | 3.0 | 0.00 | 0.44 | 0.01 | 93 | 1047.3 |
| 20260510063612 | 55 | 298 | 1.0 | 3.0 | 0.00 | 0.44 | 0.01 | 93 | 1047.3 |
| 20260510063606 | 55 | 298 | 0.0 | 3.0 | 0.00 | 0.44 | 0.01 | 93 | 1047.3 |
| 20260510063242 | 55 | 298 | 0.0 | 2.0 | 0.00 | 0.44 | 0.01 | 93 | 1047.3 |
| 20260510063222 | 55 | 298 | 0.0 | 2.0 | 0.00 | 0.44 | 0.01 | 93 | 1047.3 |
| 20260510063212 | 55 | 298 | 0.0 | 2.0 | 0.00 | 0.44 | 0.01 | 94 | 1047.3 |
| 20260510063204 | 55 | 297 | 0.0 | 2.0 | 0.00 | 0.44 | 0.01 | 94 | 1047.3 |
| 20260510062839 | 54 | 298 | 0.0 | 2.0 | 0.00 | 0.44 | 0.01 | 93 | 1047.3 |
| 20260510062740 | 54 | 297 | 0.0 | 2.0 | 0.00 | 0.44 | 0.01 | 93 | 1047.3 |
| 20260510062643 | 54 | 297 | 0.0 | 2.0 | 0.00 | 0.44 | 0.01 | 94 | 1047.3 |
| 20260510062604 | 54 | 298 | 0.0 | 2.0 | 0.00 | 0.44 | 0.01 | 94 | 1047.3 |
| 20260510062542 | 54 | 298 | 0.0 | 2.0 | 0.00 | 0.44 | 0.01 | 94 | 1047.3 |
| 20260510062441 | 54 | 297 | 1.0 | 2.0 | 0.00 | 0.44 | 0.01 | 93 | 1047.3 |
| 20260510062340 | 54 | 298 | 1.0 | 2.0 | 0.00 | 0.44 | 0.01 | 93 | 1047.3 |
| 20260510062239 | 54 | 297 | 1.0 | 2.0 | 0.00 | 0.44 | 0.01 | 94 | 1047.3 |
| 20260510062139 | 53 | 297 | 1.0 | 3.0 | 0.00 | 0.44 | 0.01 | 94 | 1047.3 |
| 20260510062104 | 53 | 297 | 1.0 | 4.0 | 0.00 | 0.44 | 0.01 | 93 | 1047.3 |
| 20260510062040 | 53 | 298 | 1.0 | 4.0 | 0.00 | 0.44 | 0.01 | 93 | 1047.3 |
| 20260510061939 | 53 | 297 | 1.0 | 4.0 | 0.00 | 0.44 | 0.01 | 93 | 1047.4 |
| 20260510061838 | 53 | 298 | 2.0 | 4.0 | 0.00 | 0.44 | 0.01 | 93 | 1047.3 |
| 20260510061735 | 53 | 297 | 2.0 | 4.0 | 0.00 | 0.44 | 0.01 | 94 | 1047.3 |
| 20260510061636 | 53 | 298 | 2.0 | 4.0 | 0.00 | 0.44 | 0.01 | 93 | 1047.3 |
| 20260510061606 | 53 | 297 | 2.0 | 4.0 | 0.00 | 0.44 | 0.01 | 93 | 1047.3 |
| 20260510061558 | 52 | 298 | 2.0 | 4.0 | 0.00 | 0.44 | 0.01 | 93 | 1047.3 |
| 20260510061544 | 52 | 297 | 3.0 | 4.0 | 0.00 | 0.44 | 0.01 | 94 | 1047.3 |
| 20260510061533 | 52 | 297 | 3.0 | 4.0 | 0.00 | 0.44 | 0.01 | 94 | 1047.3 |
| 20260510061522 | 52 | 297 | 3.0 | 4.0 | 0.00 | 0.44 | 0.01 | 93 | 1047.3 |
| 20260510061252 | 52 | 298 | 2.0 | 3.0 | 0.00 | 0.44 | 0.01 | 93 | 1047.3 |
| 20260510061244 | 52 | 297 | 2.0 | 3.0 | 0.00 | 0.44 | 0.01 | 94 | 1047.3 |
| 20260510061237 | 52 | 297 | 2.0 | 3.0 | 0.00 | 0.44 | 0.01 | 94 | 1047.3 |
| 20260510061230 | 51 | 298 | 2.0 | 3.0 | 0.00 | 0.44 | 0.01 | 94 | 1047.3 |
| 20260510060948 | 51 | 298 | 2.0 | 3.0 | 0.00 | 0.44 | 0.01 | 93 | 1047.3 |
| 20260510060714 | 51 | 297 | 2.0 | 3.0 | 0.00 | 0.44 | 0.01 | 93 | 1047.2 |
| 20260510060132 | 51 | 297 | 2.0 | 3.0 | 0.00 | 0.44 | 0.01 | 94 | 1047.2 |
| 20260510060032 | 51 | 298 | 2.0 | 3.0 | 0.00 | 0.44 | 0.01 | 93 | 1047.2 |
| 20260510055932 | 51 | 297 | 2.0 | 4.0 | 0.00 | 0.44 | 0.01 | 93 | 1047.2 |
| 20260510055832 | 50 | 297 | 2.0 | 4.0 | 0.00 | 0.44 | 0.01 | 93 | 1047.2 |
| 20260510055813 | 50 | 298 | 2.0 | 4.0 | 0.00 | 0.44 | 0.01 | 94 | 1047.2 |
| 20260510055805 | 50 | 297 | 2.0 | 4.0 | 0.00 | 0.44 | 0.01 | 94 | 1047.2 |
| 20260510055755 | 50 | 298 | 2.0 | 4.0 | 0.00 | 0.44 | 0.01 | 94 | 1047.2 |
| 20260510055432 | 50 | 298 | 2.0 | 4.0 | 0.00 | 0.44 | 0.01 | 93 | 1047.2 |
| 20260510055332 | 50 | 297 | 2.0 | 4.0 | 0.00 | 0.44 | 0.01 | 93 | 1047.2 |
| 20260510055233 | 50 | 297 | 2.0 | 4.0 | 0.00 | 0.44 | 0.01 | 94 | 1047.1 |
| 20260510055131 | 50 | 298 | 2.0 | 4.0 | 0.00 | 0.44 | 0.01 | 94 | 1047.1 |
| 20260510055112 | 50 | 297 | 2.0 | 4.0 | 0.00 | 0.44 | 0.01 | 94 | 1047.1 |
| 20260510055105 | 50 | 298 | 2.0 | 4.0 | 0.00 | 0.44 | 0.01 | 94 | 1047.1 |
| 20260510055058 | 49 | 297 | 2.0 | 4.0 | 0.00 | 0.44 | 0.01 | 94 | 1047.1 |
| 20260510055039 | 49 | 297 | 2.0 | 4.0 | 0.00 | 0.44 | 0.01 | 93 | 1047.2 |
| 20260510055031 | 49 | 298 | 2.0 | 4.0 | 0.00 | 0.44 | 0.01 | 93 | 1047.1 |
| 20260510054749 | 49 | 298 | 2.0 | 4.0 | 0.00 | 0.44 | 0.01 | 93 | 1047.2 |
| 20260510054431 | 49 | 297 | 3.0 | 4.0 | 0.00 | 0.44 | 0.01 | 93 | 1047.2 |
| 20260510054332 | 49 | 297 | 3.0 | 4.0 | 0.00 | 0.44 | 0.01 | 94 | 1047.2 |
| 20260510054232 | 49 | 297 | 2.0 | 4.0 | 0.00 | 0.44 | 0.01 | 94 | 1047.2 |
| 20260510054131 | 49 | 297 | 2.0 | 4.0 | 0.00 | 0.44 | 0.01 | 94 | 1047.2 |
| 20260510054033 | 49 | 298 | 2.0 | 4.0 | 0.00 | 0.44 | 0.01 | 94 | 1047.2 |
| 20260510053931 | 49 | 298 | 2.0 | 4.0 | 0.00 | 0.44 | 0.01 | 94 | 1047.2 |
| 20260510053831 | 49 | 298 | 2.0 | 4.0 | 0.00 | 0.44 | 0.01 | 94 | 1047.2 |
| 20260510053738 | 49 | 297 | 2.0 | 4.0 | 0.00 | 0.44 | 0.01 | 93 | 1047.2 |
| 20260510053716 | 49 | 298 | 2.0 | 4.0 | 0.00 | 0.44 | 0.01 | 93 | 1047.2 |
| 20260510053651 | 49 | 298 | 2.0 | 4.0 | 0.00 | 0.44 | 0.01 | 93 | 1047.2 |
| 20260510053329 | 49 | 298 | 2.0 | 4.0 | 0.00 | 0.44 | 0.01 | 93 | 1047.2 |
| 20260510053229 | 48 | 298 | 2.0 | 4.0 | 0.00 | 0.44 | 0.01 | 94 | 1047.2 |
| 20260510053130 | 48 | 298 | 2.0 | 4.0 | 0.00 | 0.44 | 0.01 | 94 | 1047.1 |
| 20260510053104 | 48 | 298 | 2.0 | 4.0 | 0.00 | 0.44 | 0.01 | 94 | 1047.1 |
| 20260510053057 | 48 | 298 | 2.0 | 4.0 | 0.00 | 0.44 | 0.01 | 94 | 1047.1 |
| 20260510052729 | 48 | 298 | 2.0 | 3.0 | 0.00 | 0.44 | 0.01 | 93 | 1047.2 |
| 20260510052627 | 48 | 298 | 2.0 | 3.0 | 0.00 | 0.44 | 0.01 | 93 | 1047.2 |
| 20260510052522 | 48 | 298 | 2.0 | 3.0 | 0.00 | 0.44 | 0.01 | 93 | 1047.2 |
| 20260510052422 | 48 | 297 | 2.0 | 4.0 | 0.00 | 0.44 | 0.01 | 93 | 1047.2 |
| 20260510052321 | 48 | 299 | 2.0 | 4.0 | 0.00 | 0.44 | 0.01 | 93 | 1047.2 |
| 20260510052222 | 48 | 298 | 3.0 | 4.0 | 0.00 | 0.44 | 0.01 | 94 | 1047.2 |
| 20260510052121 | 48 | 298 | 3.0 | 4.0 | 0.00 | 0.44 | 0.01 | 94 | 1047.3 |
| 20260510052044 | 48 | 298 | 3.0 | 4.0 | 0.00 | 0.44 | 0.01 | 94 | 1047.3 |
| 20260510052018 | 48 | 298 | 3.0 | 4.0 | 0.00 | 0.44 | 0.01 | 94 | 1047.2 |
| 20260510051934 | 48 | 298 | 3.0 | 4.0 | 0.00 | 0.44 | 0.01 | 94 | 1047.2 |
| 20260510051926 | 48 | 298 | 3.0 | 4.0 | 0.00 | 0.44 | 0.01 | 94 | 1047.2 |
| 20260510051915 | 47 | 298 | 3.0 | 4.0 | 0.00 | 0.44 | 0.01 | 94 | 1047.2 |
| 20260510051903 | 47 | 299 | 3.0 | 4.0 | 0.00 | 0.44 | 0.01 | 94 | 1047.2 |
| 20260510051633 | 47 | 298 | 2.0 | 4.0 | 0.00 | 0.44 | 0.01 | 93 | 1047.2 |
| 20260510051321 | 47 | 298 | 2.0 | 4.0 | 0.00 | 0.44 | 0.01 | 93 | 1047.1 |
| 20260510051308 | 47 | 299 | 2.0 | 4.0 | 0.00 | 0.44 | 0.01 | 93 | 1047.1 |
| 20260510051300 | 47 | 298 | 2.0 | 4.0 | 0.00 | 0.44 | 0.01 | 93 | 1047.1 |
| 20260510051248 | 47 | 299 | 2.0 | 4.0 | 0.00 | 0.44 | 0.01 | 93 | 1047.1 |
| 20260510051235 | 47 | 298 | 3.0 | 4.0 | 0.00 | 0.44 | 0.01 | 93 | 1047.1 |
| 20260510051007 | 47 | 299 | 3.0 | 4.0 | 0.00 | 0.44 | 0.01 | 93 | 1047.0 |
| 20260510050736 | 47 | 298 | 3.0 | 4.0 | 0.00 | 0.44 | 0.01 | 93 | 1047.1 |
| 20260510050725 | 47 | 298 | 3.0 | 4.0 | 0.00 | 0.44 | 0.01 | 93 | 1047.1 |
| 20260510050718 | 47 | 299 | 3.0 | 4.0 | 0.00 | 0.44 | 0.01 | 93 | 1047.1 |
| 20260510050656 | 47 | 298 | 3.0 | 4.0 | 0.00 | 0.44 | 0.01 | 93 | 1047.1 |
| 20260510050648 | 47 | 299 | 3.0 | 4.0 | 0.00 | 0.44 | 0.01 | 93 | 1047.1 |
| 20260510050420 | 47 | 300 | 3.0 | 4.0 | 0.00 | 0.44 | 0.01 | 93 | 1047.2 |
| 20260510050409 | 47 | 299 | 3.0 | 4.0 | 0.00 | 0.44 | 0.01 | 93 | 1047.2 |
| 20260510050353 | 47 | 300 | 3.0 | 4.0 | 0.00 | 0.44 | 0.01 | 93 | 1047.1 |
| 20260510050345 | 47 | 300 | 2.0 | 4.0 | 0.00 | 0.44 | 0.01 | 93 | 1047.1 |
| 20260510045631 | 47 | 300 | 2.0 | 4.0 | 0.00 | 0.44 | 0.01 | 93 | 1047.1 |
| 20260510045306 | 47 | 299 | 1.0 | 4.0 | 0.00 | 0.44 | 0.01 | 93 | 1047.1 |
| 20260510045205 | 47 | 300 | 1.0 | 3.0 | 0.00 | 0.44 | 0.01 | 93 | 1047.1 |
| 20260510045104 | 47 | 300 | 1.0 | 3.0 | 0.00 | 0.44 | 0.01 | 93 | 1047.2 |
| 20260510045048 | 47 | 301 | 1.0 | 3.0 | 0.00 | 0.44 | 0.01 | 93 | 1047.1 |
| 20260510045036 | 47 | 300 | 1.0 | 3.0 | 0.00 | 0.44 | 0.01 | 93 | 1047.1 |
| 20260510045029 | 47 | 300 | 1.0 | 3.0 | 0.00 | 0.44 | 0.01 | 93 | 1047.1 |
| 20260510044747 | 47 | 300 | 2.0 | 3.0 | 0.00 | 0.44 | 0.01 | 93 | 1047.2 |
| 20260510044739 | 47 | 301 | 2.0 | 3.0 | 0.00 | 0.44 | 0.01 | 93 | 1047.2 |
| 20260510044725 | 47 | 301 | 2.0 | 3.0 | 0.00 | 0.44 | 0.01 | 93 | 1047.2 |
| 20260510044405 | 47 | 300 | 2.0 | 3.0 | 0.00 | 0.44 | 0.01 | 93 | 1047.2 |
| 20260510044320 | 47 | 300 | 2.0 | 3.0 | 0.00 | 0.44 | 0.01 | 93 | 1047.2 |
| 20260510044312 | 47 | 301 | 2.0 | 3.0 | 0.00 | 0.44 | 0.01 | 93 | 1047.2 |
| 20260510044301 | 47 | 301 | 2.0 | 3.0 | 0.00 | 0.44 | 0.01 | 93 | 1047.2 |
| 20260510044001 | 47 | 301 | 2.0 | 3.0 | 0.00 | 0.44 | 0.01 | 93 | 1047.2 |
| 20260510043902 | 47 | 300 | 2.0 | 3.0 | 0.00 | 0.44 | 0.01 | 93 | 1047.2 |
| 20260510043759 | 47 | 301 | 2.0 | 3.0 | 0.00 | 0.44 | 0.01 | 93 | 1047.2 |
| 20260510043657 | 47 | 300 | 2.0 | 3.0 | 0.00 | 0.44 | 0.01 | 93 | 1047.2 |
| 20260510043559 | 47 | 301 | 2.0 | 4.0 | 0.00 | 0.44 | 0.01 | 93 | 1047.2 |
| 20260510043549 | 47 | 301 | 2.0 | 4.0 | 0.00 | 0.44 | 0.01 | 93 | 1047.3 |
| 20260510043454 | 47 | 300 | 2.0 | 4.0 | 0.00 | 0.44 | 0.01 | 93 | 1047.3 |
| 20260510043352 | 47 | 302 | 2.0 | 4.0 | 0.00 | 0.44 | 0.01 | 93 | 1047.2 |
| 20260510043251 | 47 | 300 | 2.0 | 4.0 | 0.00 | 0.44 | 0.01 | 93 | 1047.3 |
| 20260510043228 | 47 | 301 | 2.0 | 4.0 | 0.00 | 0.44 | 0.01 | 93 | 1047.3 |
| 20260510043221 | 47 | 300 | 2.0 | 4.0 | 0.00 | 0.44 | 0.01 | 93 | 1047.4 |
| 20260510043211 | 47 | 301 | 2.0 | 4.0 | 0.00 | 0.44 | 0.01 | 93 | 1047.4 |
| 20260510042845 | 47 | 300 | 2.0 | 4.0 | 0.00 | 0.44 | 0.01 | 93 | 1047.4 |
| 20260510042747 | 47 | 301 | 2.0 | 4.0 | 0.00 | 0.44 | 0.01 | 93 | 1047.3 |
| 20260510042645 | 47 | 300 | 2.0 | 4.0 | 0.00 | 0.44 | 0.01 | 93 | 1047.4 |
| 20260510042613 | 47 | 301 | 2.0 | 4.0 | 0.00 | 0.44 | 0.01 | 93 | 1047.4 |
| 20260510042606 | 47 | 301 | 3.0 | 4.0 | 0.00 | 0.44 | 0.01 | 93 | 1047.4 |
| 20260510042551 | 47 | 301 | 3.0 | 4.0 | 0.00 | 0.44 | 0.01 | 93 | 1047.4 |
| 20260510042543 | 47 | 301 | 3.0 | 4.0 | 0.00 | 0.44 | 0.01 | 93 | 1047.4 |
| 20260510042533 | 47 | 301 | 3.0 | 4.0 | 0.00 | 0.44 | 0.01 | 93 | 1047.4 |
| 20260510042309 | 47 | 301 | 3.0 | 4.0 | 0.00 | 0.44 | 0.01 | 93 | 1047.4 |
| 20260510042300 | 47 | 301 | 3.0 | 4.0 | 0.00 | 0.44 | 0.01 | 93 | 1047.4 |
| 20260510042248 | 47 | 301 | 3.0 | 4.0 | 0.00 | 0.44 | 0.01 | 93 | 1047.4 |
| 20260510041758 | 47 | 301 | 3.0 | 5.0 | 0.00 | 0.44 | 0.01 | 93 | 1047.3 |
| 20260510041510 | 47 | 301 | 3.0 | 5.0 | 0.00 | 0.44 | 0.01 | 93 | 1047.3 |
| 20260510041459 | 47 | 301 | 3.0 | 5.0 | 0.00 | 0.44 | 0.01 | 93 | 1047.3 |
| 20260510041137 | 47 | 301 | 3.0 | 5.0 | 0.00 | 0.44 | 0.01 | 93 | 1047.3 |
| 20260510041035 | 47 | 301 | 3.0 | 5.0 | 0.00 | 0.44 | 0.01 | 93 | 1047.3 |
| 20260510040937 | 47 | 301 | 3.0 | 5.0 | 0.00 | 0.44 | 0.01 | 93 | 1047.3 |
| 20260510040853 | 47 | 301 | 3.0 | 5.0 | 0.00 | 0.44 | 0.01 | 93 | 1047.3 |
| 20260510040844 | 47 | 301 | 2.0 | 5.0 | 0.00 | 0.44 | 0.01 | 93 | 1047.3 |
| 20260510040835 | 47 | 301 | 2.0 | 5.0 | 0.00 | 0.44 | 0.01 | 93 | 1047.3 |
| 20260510040815 | 47 | 301 | 2.0 | 4.0 | 0.00 | 0.44 | 0.01 | 93 | 1047.3 |
| 20260510040547 | 47 | 301 | 2.0 | 3.0 | 0.00 | 0.44 | 0.01 | 93 | 1047.3 |
| 20260510040306 | 47 | 301 | 2.0 | 3.0 | 0.00 | 0.44 | 0.01 | 93 | 1047.4 |
| 20260510040250 | 47 | 301 | 2.0 | 3.0 | 0.00 | 0.44 | 0.01 | 93 | 1047.4 |
| 20260510035936 | 47 | 302 | 2.0 | 3.0 | 0.00 | 0.44 | 0.01 | 93 | 1047.4 |
| 20260510035833 | 47 | 301 | 2.0 | 3.0 | 0.00 | 0.44 | 0.01 | 93 | 1047.3 |
| 20260510035734 | 47 | 301 | 2.0 | 3.0 | 0.00 | 0.44 | 0.01 | 93 | 1047.3 |
| 20260510035634 | 47 | 301 | 2.0 | 3.0 | 0.00 | 0.44 | 0.01 | 93 | 1047.3 |
| 20260510035535 | 47 | 301 | 2.0 | 3.0 | 0.00 | 0.44 | 0.01 | 93 | 1047.3 |
| 20260510035431 | 47 | 301 | 2.0 | 3.0 | 0.00 | 0.44 | 0.01 | 93 | 1047.3 |
| 20260510035331 | 47 | 301 | 2.0 | 3.0 | 0.00 | 0.44 | 0.01 | 93 | 1047.3 |
| 20260510035232 | 47 | 301 | 2.0 | 3.0 | 0.00 | 0.44 | 0.01 | 93 | 1047.3 |
| 20260510035211 | 47 | 301 | 2.0 | 3.0 | 0.00 | 0.44 | 0.01 | 93 | 1047.3 |
| 20260510035156 | 47 | 301 | 2.0 | 3.0 | 0.00 | 0.44 | 0.01 | 93 | 1047.3 |
| 20260510034831 | 47 | 301 | 2.0 | 3.0 | 0.00 | 0.44 | 0.01 | 93 | 1047.3 |
| 20260510034731 | 47 | 301 | 2.0 | 3.0 | 0.00 | 0.44 | 0.01 | 93 | 1047.3 |
| 20260510034631 | 47 | 301 | 2.0 | 3.0 | 0.00 | 0.44 | 0.01 | 93 | 1047.2 |
| 20260510034534 | 47 | 301 | 2.0 | 3.0 | 0.00 | 0.44 | 0.01 | 93 | 1047.2 |
| 20260510034431 | 47 | 301 | 2.0 | 3.0 | 0.00 | 0.44 | 0.01 | 93 | 1047.2 |
| 20260510034349 | 47 | 301 | 2.0 | 3.0 | 0.00 | 0.44 | 0.01 | 93 | 1047.2 |
| 20260510034343 | 48 | 301 | 2.0 | 3.0 | 0.00 | 0.44 | 0.01 | 93 | 1047.2 |
| 20260510034330 | 48 | 301 | 2.0 | 3.0 | 0.00 | 0.44 | 0.01 | 93 | 1047.2 |
| 20260510034314 | 48 | 301 | 2.0 | 3.0 | 0.00 | 0.44 | 0.01 | 93 | 1047.2 |
| 20260510033730 | 48 | 301 | 2.0 | 4.0 | 0.00 | 0.44 | 0.01 | 93 | 1047.3 |
| 20260510033629 | 48 | 301 | 2.0 | 4.0 | 0.00 | 0.44 | 0.01 | 93 | 1047.3 |
| 20260510033535 | 48 | 301 | 2.0 | 4.0 | 0.00 | 0.44 | 0.01 | 93 | 1047.3 |
| 20260510033505 | 48 | 301 | 2.0 | 4.0 | 0.00 | 0.44 | 0.01 | 93 | 1047.3 |
| 20260510033458 | 48 | 301 | 2.0 | 4.0 | 0.00 | 0.44 | 0.01 | 93 | 1047.3 |
| 20260510033446 | 48 | 301 | 2.0 | 4.0 | 0.00 | 0.44 | 0.01 | 93 | 1047.3 |
| 20260510033422 | 48 | 301 | 2.0 | 4.0 | 0.00 | 0.44 | 0.01 | 93 | 1047.3 |
| 20260510033152 | 48 | 301 | 2.0 | 4.0 | 0.00 | 0.44 | 0.01 | 93 | 1047.3 |
| 20260510032829 | 48 | 301 | 2.0 | 4.0 | 0.00 | 0.44 | 0.01 | 93 | 1047.4 |
| 20260510032728 | 48 | 301 | 2.0 | 4.0 | 0.00 | 0.44 | 0.01 | 93 | 1047.4 |
| 20260510032637 | 48 | 301 | 2.0 | 4.0 | 0.00 | 0.44 | 0.01 | 93 | 1047.3 |
| 20260510032621 | 48 | 301 | 2.0 | 4.0 | 0.00 | 0.44 | 0.01 | 93 | 1047.3 |
| 20260510032604 | 48 | 301 | 2.0 | 4.0 | 0.00 | 0.44 | 0.01 | 93 | 1047.3 |
| 20260510032339 | 48 | 301 | 2.0 | 4.0 | 0.00 | 0.44 | 0.01 | 93 | 1047.3 |
| 20260510032328 | 48 | 301 | 2.0 | 4.0 | 0.00 | 0.44 | 0.01 | 93 | 1047.3 |
| 20260510032318 | 48 | 301 | 2.0 | 4.0 | 0.00 | 0.44 | 0.01 | 93 | 1047.3 |
| 20260510032051 | 48 | 301 | 2.0 | 4.0 | 0.00 | 0.44 | 0.01 | 93 | 1047.3 |
| 20260510031729 | 48 | 302 | 2.0 | 3.0 | 0.00 | 0.44 | 0.01 | 93 | 1047.3 |
| 20260510031629 | 48 | 303 | 2.0 | 3.0 | 0.00 | 0.44 | 0.01 | 93 | 1047.3 |
| 20260510031617 | 48 | 302 | 2.0 | 3.0 | 0.00 | 0.44 | 0.01 | 93 | 1047.3 |
| 20260510031607 | 48 | 303 | 2.0 | 3.0 | 0.00 | 0.44 | 0.01 | 93 | 1047.3 |
| 20260510031555 | 48 | 302 | 2.0 | 3.0 | 0.00 | 0.44 | 0.01 | 93 | 1047.3 |
| 20260510031253 | 48 | 302 | 2.0 | 3.0 | 0.00 | 0.44 | 0.01 | 93 | 1047.3 |
| 20260510031247 | 48 | 302 | 2.0 | 3.0 | 0.00 | 0.44 | 0.01 | 93 | 1047.3 |
| 20260510031232 | 48 | 302 | 2.0 | 3.0 | 0.00 | 0.44 | 0.01 | 93 | 1047.3 |
| 20260510030928 | 48 | 302 | 2.0 | 3.0 | 0.00 | 0.44 | 0.01 | 93 | 1047.3 |
| 20260510030829 | 48 | 302 | 2.0 | 3.0 | 0.00 | 0.44 | 0.01 | 93 | 1047.3 |
| 20260510030729 | 48 | 303 | 2.0 | 3.0 | 0.00 | 0.44 | 0.01 | 93 | 1047.3 |
| 20260510030629 | 48 | 302 | 2.0 | 3.0 | 0.00 | 0.44 | 0.01 | 93 | 1047.3 |
| 20260510030608 | 48 | 302 | 2.0 | 3.0 | 0.00 | 0.44 | 0.01 | 93 | 1047.3 |
| 20260510030555 | 48 | 302 | 2.0 | 3.0 | 0.00 | 0.44 | 0.01 | 93 | 1047.3 |
| 20260510030315 | 48 | 302 | 2.0 | 3.0 | 0.00 | 0.44 | 0.01 | 93 | 1047.3 |
| 20260510030018 | 48 | 302 | 2.0 | 3.0 | 0.00 | 0.44 | 0.01 | 93 | 1047.4 |
| 20260510025927 | 48 | 302 | 2.0 | 3.0 | 0.00 | 0.44 | 0.01 | 93 | 1047.3 |
| 20260510025827 | 48 | 302 | 2.0 | 3.0 | 0.00 | 0.44 | 0.01 | 93 | 1047.4 |
| 20260510025726 | 48 | 303 | 2.0 | 3.0 | 0.00 | 0.44 | 0.01 | 93 | 1047.4 |
| 20260510025713 | 48 | 303 | 2.0 | 3.0 | 0.00 | 0.44 | 0.01 | 93 | 1047.4 |
| 20260510025706 | 48 | 302 | 2.0 | 3.0 | 0.00 | 0.44 | 0.01 | 93 | 1047.4 |
| 20260510025658 | 48 | 303 | 2.0 | 3.0 | 0.00 | 0.44 | 0.01 | 93 | 1047.4 |
| 20260510025323 | 48 | 303 | 2.0 | 3.0 | 0.00 | 0.44 | 0.01 | 93 | 1047.4 |
| 20260510025250 | 48 | 302 | 2.0 | 3.0 | 0.00 | 0.44 | 0.01 | 93 | 1047.4 |
| 20260510025243 | 48 | 303 | 2.0 | 3.0 | 0.00 | 0.44 | 0.01 | 93 | 1047.4 |
| 20260510025229 | 48 | 303 | 2.0 | 3.0 | 0.00 | 0.44 | 0.01 | 93 | 1047.5 |
| 20260510024916 | 48 | 302 | 2.0 | 3.0 | 0.00 | 0.44 | 0.01 | 93 | 1047.4 |
| 20260510024813 | 48 | 303 | 2.0 | 3.0 | 0.00 | 0.44 | 0.01 | 93 | 1047.4 |
| 20260510024713 | 48 | 302 | 2.0 | 3.0 | 0.00 | 0.44 | 0.01 | 93 | 1047.5 |
| 20260510024611 | 48 | 302 | 2.0 | 3.0 | 0.00 | 0.44 | 0.01 | 93 | 1047.5 |
| 20260510024515 | 48 | 302 | 2.0 | 3.0 | 0.00 | 0.44 | 0.01 | 93 | 1047.4 |
| 20260510024409 | 48 | 302 | 2.0 | 3.0 | 0.00 | 0.44 | 0.01 | 93 | 1047.4 |
| 20260510024303 | 48 | 303 | 2.0 | 3.0 | 0.00 | 0.44 | 0.01 | 93 | 1047.4 |
| 20260510024249 | 48 | 302 | 2.0 | 3.0 | 0.00 | 0.44 | 0.01 | 93 | 1047.4 |
| 20260510024238 | 48 | 303 | 2.0 | 3.0 | 0.00 | 0.44 | 0.01 | 93 | 1047.4 |
| 20260510024003 | 48 | 302 | 2.0 | 3.0 | 0.00 | 0.44 | 0.01 | 93 | 1047.4 |
| 20260510023904 | 48 | 302 | 2.0 | 3.0 | 0.00 | 0.44 | 0.01 | 93 | 1047.4 |
| 20260510023803 | 48 | 303 | 2.0 | 3.0 | 0.00 | 0.44 | 0.01 | 93 | 1047.4 |
| 20260510023702 | 48 | 302 | 2.0 | 3.0 | 0.00 | 0.44 | 0.01 | 93 | 1047.4 |
| 20260510023603 | 48 | 303 | 2.0 | 3.0 | 0.00 | 0.44 | 0.01 | 93 | 1047.4 |
| 20260510023514 | 48 | 302 | 2.0 | 3.0 | 0.00 | 0.44 | 0.01 | 93 | 1047.4 |
| 20260510023503 | 48 | 359 | 2.0 | 3.0 | 0.00 | 0.44 | 0.01 | 93 | 1047.4 |
| 20260510023403 | 48 | 303 | 2.0 | 3.0 | 0.00 | 0.44 | 0.01 | 93 | 1047.4 |
| 20260510023309 | 48 | 303 | 2.0 | 3.0 | 0.00 | 0.44 | 0.01 | 93 | 1047.5 |
| 20260510023301 | 48 | 303 | 2.0 | 3.0 | 0.00 | 0.44 | 0.01 | 93 | 1047.5 |
| 20260510023250 | 48 | 302 | 2.0 | 3.0 | 0.00 | 0.44 | 0.01 | 93 | 1047.5 |
| 20260510023001 | 48 | 303 | 2.0 | 3.0 | 0.00 | 0.44 | 0.01 | 93 | 1047.4 |
| 20260510022903 | 48 | 302 | 2.0 | 3.0 | 0.00 | 0.44 | 0.01 | 93 | 1047.5 |
| 20260510022801 | 48 | 302 | 2.0 | 3.0 | 0.00 | 0.44 | 0.01 | 93 | 1047.5 |
| 20260510022701 | 48 | 302 | 2.0 | 3.0 | 0.00 | 0.44 | 0.01 | 93 | 1047.5 |
| 20260510022600 | 48 | 303 | 2.0 | 3.0 | 0.00 | 0.44 | 0.01 | 93 | 1047.5 |
| 20260510022513 | 48 | 303 | 2.0 | 3.0 | 0.00 | 0.44 | 0.01 | 93 | 1047.5 |
| 20260510022500 | 48 | 302 | 2.0 | 3.0 | 0.00 | 0.44 | 0.01 | 93 | 1047.5 |
| 20260510022402 | 48 | 302 | 2.0 | 4.0 | 0.00 | 0.44 | 0.01 | 93 | 1047.5 |
| 20260510022301 | 48 | 303 | 2.0 | 4.0 | 0.00 | 0.44 | 0.01 | 93 | 1047.5 |
| 20260510022243 | 48 | 302 | 2.0 | 4.0 | 0.00 | 0.44 | 0.01 | 93 | 1047.5 |
| 20260510022232 | 48 | 303 | 2.0 | 4.0 | 0.00 | 0.44 | 0.01 | 93 | 1047.6 |
| 20260510022000 | 48 | 303 | 2.0 | 4.0 | 0.00 | 0.44 | 0.01 | 93 | 1047.6 |
| 20260510021933 | 48 | 302 | 2.0 | 4.0 | 0.00 | 0.44 | 0.01 | 93 | 1047.6 |
| 20260510021924 | 48 | 303 | 2.0 | 4.0 | 0.00 | 0.44 | 0.01 | 93 | 1047.6 |
| 20260510021601 | 48 | 302 | 2.0 | 4.0 | 0.00 | 0.44 | 0.01 | 93 | 1047.7 |
| 20260510021512 | 48 | 303 | 2.0 | 4.0 | 0.00 | 0.44 | 0.01 | 93 | 1047.6 |
| 20260510021501 | 48 | 302 | 2.0 | 4.0 | 0.00 | 0.44 | 0.01 | 93 | 1047.6 |
| 20260510021359 | 48 | 303 | 2.0 | 4.0 | 0.00 | 0.44 | 0.01 | 93 | 1047.6 |
| 20260510021323 | 49 | 303 | 2.0 | 3.0 | 0.00 | 0.44 | 0.01 | 93 | 1047.6 |
| 20260510021315 | 49 | 302 | 2.0 | 3.0 | 0.00 | 0.44 | 0.01 | 93 | 1047.6 |
| 20260510021015 | 49 | 303 | 2.0 | 3.0 | 0.00 | 0.44 | 0.01 | 93 | 1047.6 |
| 20260510020954 | 49 | 303 | 2.0 | 3.0 | 0.00 | 0.44 | 0.01 | 93 | 1047.6 |
| 20260510020854 | 49 | 302 | 2.0 | 4.0 | 0.00 | 0.44 | 0.01 | 93 | 1047.7 |
| 20260510020755 | 49 | 302 | 2.0 | 4.0 | 0.00 | 0.44 | 0.01 | 93 | 1047.6 |
| 20260510020655 | 49 | 359 | 2.0 | 4.0 | 0.00 | 0.44 | 0.01 | 93 | 1047.7 |
| 20260510020529 | 49 | 302 | 2.0 | 4.0 | 0.00 | 0.44 | 0.01 | 93 | 1047.7 |
| 20260510020522 | 49 | 302 | 2.0 | 4.0 | 0.00 | 0.44 | 0.01 | 93 | 1047.7 |
| 20260510020512 | 49 | 303 | 2.0 | 4.0 | 0.00 | 0.44 | 0.01 | 93 | 1047.7 |
| 20260510020200 | 49 | 303 | 2.0 | 4.0 | 0.00 | 0.44 | 0.01 | 93 | 1047.6 |
| 20260510020152 | 49 | 302 | 2.0 | 4.0 | 0.00 | 0.44 | 0.01 | 93 | 1047.6 |
| 20260510020140 | 49 | 302 | 3.0 | 4.0 | 0.00 | 0.44 | 0.01 | 93 | 1047.6 |
| 20260510020129 | 49 | 302 | 3.0 | 4.0 | 0.00 | 0.44 | 0.01 | 93 | 1047.6 |
| 20260510015753 | 49 | 302 | 3.0 | 4.0 | 0.00 | 0.44 | 0.01 | 93 | 1047.6 |
| 20260510015653 | 49 | 302 | 3.0 | 4.0 | 0.00 | 0.44 | 0.01 | 93 | 1047.6 |
| 20260510015552 | 49 | 302 | 3.0 | 4.0 | 0.00 | 0.44 | 0.01 | 93 | 1047.6 |
| 20260510015512 | 49 | 302 | 3.0 | 4.0 | 0.00 | 0.44 | 0.01 | 93 | 1047.6 |
| 20260510015500 | 49 | 302 | 3.0 | 4.0 | 0.00 | 0.44 | 0.01 | 93 | 1047.6 |
| 20260510015450 | 49 | 303 | 3.0 | 4.0 | 0.00 | 0.44 | 0.01 | 93 | 1047.6 |
| 20260510015443 | 49 | 303 | 3.0 | 4.0 | 0.00 | 0.44 | 0.01 | 93 | 1047.6 |
| 20260510015205 | 49 | 303 | 3.0 | 4.0 | 0.00 | 0.44 | 0.01 | 93 | 1047.6 |
| 20260510015156 | 49 | 303 | 3.0 | 4.0 | 0.00 | 0.44 | 0.01 | 93 | 1047.5 |
| 20260510015147 | 49 | 302 | 3.0 | 4.0 | 0.00 | 0.44 | 0.01 | 93 | 1047.5 |
| 20260510015125 | 49 | 302 | 3.0 | 4.0 | 0.00 | 0.44 | 0.01 | 93 | 1047.5 |
| 20260510015117 | 49 | 303 | 3.0 | 4.0 | 0.00 | 0.44 | 0.01 | 93 | 1047.6 |
| 20260510014848 | 49 | 303 | 3.0 | 4.0 | 0.00 | 0.44 | 0.01 | 93 | 1047.6 |
| 20260510014623 | 49 | 302 | 2.0 | 4.0 | 0.00 | 0.44 | 0.01 | 93 | 1047.5 |
| 20260510014613 | 49 | 302 | 2.0 | 4.0 | 0.00 | 0.44 | 0.01 | 93 | 1047.6 |
| 20260510014605 | 49 | 302 | 2.0 | 4.0 | 0.00 | 0.44 | 0.01 | 93 | 1047.6 |
| 20260510014337 | 49 | 302 | 2.0 | 3.0 | 0.00 | 0.44 | 0.01 | 93 | 1047.6 |
| 20260510014326 | 49 | 303 | 2.0 | 3.0 | 0.00 | 0.44 | 0.01 | 93 | 1047.7 |
| 20260510013747 | 49 | 302 | 2.0 | 4.0 | 0.00 | 0.44 | 0.01 | 93 | 1047.6 |
| 20260510013647 | 49 | 303 | 2.0 | 4.0 | 0.00 | 0.44 | 0.01 | 93 | 1047.6 |
| 20260510013546 | 49 | 303 | 2.0 | 4.0 | 0.01 | 0.44 | 0.01 | 93 | 1047.6 |
| 20260510013512 | 49 | 302 | 2.0 | 4.0 | 0.01 | 0.44 | 0.01 | 93 | 1047.6 |
| 20260510013447 | 49 | 302 | 2.0 | 4.0 | 0.01 | 0.44 | 0.01 | 93 | 1047.6 |
| 20260510013346 | 49 | 303 | 2.0 | 4.0 | 0.01 | 0.44 | 0.01 | 93 | 1047.6 |
| 20260510013246 | 49 | 303 | 2.0 | 4.0 | 0.01 | 0.44 | 0.01 | 93 | 1047.6 |
| 20260510013147 | 49 | 302 | 2.0 | 4.0 | 0.01 | 0.44 | 0.01 | 93 | 1047.6 |
| 20260510013019 | 49 | 302 | 2.0 | 4.0 | 0.01 | 0.44 | 0.01 | 93 | 1047.6 |
| 20260510013012 | 49 | 302 | 2.0 | 4.0 | 0.01 | 0.44 | 0.01 | 93 | 1047.7 |
| 20260510013002 | 49 | 303 | 2.0 | 4.0 | 0.01 | 0.44 | 0.01 | 93 | 1047.7 |
| 20260510012642 | 49 | 304 | 2.0 | 4.0 | 0.01 | 0.44 | 0.01 | 93 | 1047.6 |
| 20260510012543 | 49 | 305 | 2.0 | 3.0 | 0.01 | 0.44 | 0.01 | 93 | 1047.6 |
| 20260510012509 | 49 | 304 | 2.0 | 4.0 | 0.01 | 0.44 | 0.01 | 93 | 1047.6 |
| 20260510012443 | 49 | 304 | 2.0 | 4.0 | 0.01 | 0.44 | 0.01 | 93 | 1047.6 |
| 20260510012342 | 49 | 304 | 2.0 | 4.0 | 0.01 | 0.44 | 0.01 | 93 | 1047.5 |
| 20260510012243 | 49 | 304 | 2.0 | 4.0 | 0.01 | 0.44 | 0.01 | 93 | 1047.5 |
| 20260510012143 | 49 | 304 | 2.0 | 4.0 | 0.01 | 0.44 | 0.01 | 93 | 1047.5 |
| 20260510012044 | 49 | 304 | 2.0 | 4.0 | 0.01 | 0.44 | 0.01 | 93 | 1047.5 |
| 20260510012010 | 49 | 304 | 2.0 | 4.0 | 0.01 | 0.44 | 0.01 | 93 | 1047.4 |
| 20260510011943 | 49 | 304 | 2.0 | 4.0 | 0.01 | 0.44 | 0.01 | 93 | 1047.4 |
| 20260510011843 | 49 | 304 | 2.0 | 4.0 | 0.01 | 0.44 | 0.01 | 93 | 1047.5 |
| 20260510011742 | 49 | 304 | 2.0 | 4.0 | 0.01 | 0.44 | 0.01 | 93 | 1047.4 |
| 20260510011642 | 49 | 304 | 2.0 | 4.0 | 0.01 | 0.44 | 0.01 | 93 | 1047.5 |
| 20260510011543 | 49 | 304 | 2.0 | 4.0 | 0.01 | 0.44 | 0.01 | 93 | 1047.5 |
| 20260510011509 | 49 | 304 | 2.0 | 3.0 | 0.01 | 0.44 | 0.01 | 93 | 1047.5 |
| 20260510011443 | 49 | 304 | 2.0 | 3.0 | 0.01 | 0.44 | 0.01 | 93 | 1047.5 |
| 20260510011342 | 49 | 304 | 2.0 | 3.0 | 0.01 | 0.44 | 0.01 | 93 | 1047.5 |
| 20260510011310 | 49 | 304 | 2.0 | 3.0 | 0.01 | 0.44 | 0.01 | 93 | 1047.4 |
| 20260510011300 | 50 | 304 | 2.0 | 3.0 | 0.01 | 0.44 | 0.01 | 93 | 1047.4 |
| 20260510011011 | 50 | 304 | 2.0 | 3.0 | 0.01 | 0.44 | 0.01 | 93 | 1047.4 |
| 20260510010938 | 50 | 304 | 2.0 | 3.0 | 0.01 | 0.44 | 0.01 | 93 | 1047.4 |
| 20260510010838 | 50 | 304 | 2.0 | 4.0 | 0.01 | 0.44 | 0.01 | 93 | 1047.4 |
| 20260510010803 | 50 | 305 | 2.0 | 4.0 | 0.01 | 0.44 | 0.01 | 93 | 1047.4 |
| 20260510010753 | 50 | 304 | 2.0 | 4.0 | 0.01 | 0.44 | 0.01 | 93 | 1047.4 |
| 20260510010723 | 50 | 304 | 2.0 | 4.0 | 0.01 | 0.44 | 0.01 | 93 | 1047.3 |
| 20260510010459 | 50 | 304 | 2.0 | 4.0 | 0.01 | 0.44 | 0.01 | 93 | 1047.4 |
| 20260510010137 | 50 | 304 | 2.0 | 4.0 | 0.01 | 0.44 | 0.01 | 93 | 1047.4 |
| 20260510010011 | 50 | 304 | 2.0 | 4.0 | 0.01 | 0.44 | 0.01 | 93 | 1047.4 |
| 20260510005952 | 50 | 304 | 3.0 | 4.0 | 0.01 | 0.44 | 0.01 | 93 | 1047.4 |
| 20260510005944 | 50 | 305 | 3.0 | 4.0 | 0.01 | 0.44 | 0.01 | 93 | 1047.4 |
| 20260510005937 | 50 | 304 | 3.0 | 4.0 | 0.01 | 0.44 | 0.01 | 93 | 1047.4 |
| 20260510005650 | 50 | 305 | 3.0 | 4.0 | 0.01 | 0.44 | 0.01 | 93 | 1047.3 |
| 20260510005641 | 50 | 305 | 3.0 | 4.0 | 0.01 | 0.44 | 0.01 | 93 | 1047.4 |
| 20260510005633 | 50 | 305 | 3.0 | 5.0 | 0.01 | 0.44 | 0.01 | 93 | 1047.4 |
| 20260510005625 | 50 | 304 | 3.0 | 5.0 | 0.01 | 0.44 | 0.01 | 93 | 1047.4 |
| 20260510005352 | 50 | 304 | 2.0 | 5.0 | 0.01 | 0.44 | 0.01 | 93 | 1047.4 |
| 20260510005118 | 50 | 305 | 2.0 | 5.0 | 0.01 | 0.44 | 0.01 | 93 | 1047.4 |
| 20260510004849 | 50 | 305 | 2.0 | 5.0 | 0.01 | 0.44 | 0.01 | 93 | 1047.4 |
| 20260510004836 | 50 | 305 | 2.0 | 5.0 | 0.01 | 0.44 | 0.01 | 93 | 1047.5 |
| 20260510004828 | 50 | 306 | 2.0 | 5.0 | 0.01 | 0.44 | 0.01 | 93 | 1047.5 |
| 20260510004557 | 50 | 305 | 2.0 | 5.0 | 0.01 | 0.44 | 0.01 | 93 | 1047.5 |
| 20260510004232 | 50 | 305 | 2.0 | 4.0 | 0.01 | 0.44 | 0.01 | 93 | 1047.6 |
| 20260510004132 | 50 | 306 | 2.0 | 4.0 | 0.01 | 0.44 | 0.01 | 93 | 1047.6 |
| 20260510004033 | 50 | 306 | 2.0 | 4.0 | 0.01 | 0.44 | 0.01 | 93 | 1047.6 |
| 20260510004010 | 50 | 305 | 2.0 | 4.0 | 0.01 | 0.44 | 0.01 | 93 | 1047.6 |
| 20260510003932 | 50 | 305 | 2.0 | 4.0 | 0.01 | 0.44 | 0.01 | 93 | 1047.6 |
| 20260510003833 | 50 | 306 | 2.0 | 4.0 | 0.01 | 0.44 | 0.01 | 93 | 1047.7 |
| 20260510003732 | 50 | 305 | 2.0 | 4.0 | 0.01 | 0.44 | 0.01 | 93 | 1047.7 |
| 20260510003710 | 50 | 306 | 2.0 | 4.0 | 0.01 | 0.44 | 0.00 | 93 | 1047.7 |
| 20260510003652 | 50 | 305 | 3.0 | 4.0 | 0.00 | 0.43 | 0.00 | 93 | 1047.7 |
| 20260510003643 | 50 | 305 | 3.0 | 4.0 | 0.00 | 0.43 | 0.00 | 93 | 1047.7 |
| 20260510003634 | 50 | 305 | 3.0 | 4.0 | 0.00 | 0.43 | 0.00 | 93 | 1047.8 |
| 20260510003626 | 50 | 306 | 3.0 | 4.0 | 0.00 | 0.43 | 0.00 | 93 | 1047.8 |
| 20260510003136 | 50 | 306 | 3.0 | 4.0 | 0.00 | 0.43 | 0.00 | 93 | 1047.9 |
| 20260510003130 | 50 | 306 | 3.0 | 4.0 | 0.00 | 0.43 | 0.00 | 93 | 1047.8 |
| 20260510003107 | 50 | 306 | 3.0 | 4.0 | 0.00 | 0.43 | 0.00 | 93 | 1047.8 |
| 20260510003100 | 50 | 307 | 3.0 | 4.0 | 0.00 | 0.43 | 0.00 | 93 | 1047.8 |
| 20260510003048 | 50 | 306 | 3.0 | 4.0 | 0.00 | 0.43 | 0.00 | 93 | 1047.7 |
| 20260510003027 | 50 | 306 | 2.0 | 4.0 | 0.00 | 0.43 | 0.00 | 93 | 1047.8 |
| 20260510002533 | 50 | 306 | 2.0 | 4.0 | 0.00 | 0.43 | 0.00 | 93 | 1047.7 |
| 20260510002308 | 50 | 307 | 2.0 | 4.0 | 0.00 | 0.43 | 0.00 | 93 | 1047.8 |
| 20260510002014 | 50 | 307 | 2.0 | 4.0 | 0.00 | 0.43 | 0.00 | 93 | 1047.8 |
| 20260510002006 | 50 | 307 | 2.0 | 3.0 | 0.00 | 0.43 | 0.00 | 93 | 1047.8 |
| 20260510001958 | 50 | 307 | 2.0 | 3.0 | 0.00 | 0.43 | 0.00 | 93 | 1047.8 |
| 20260510001634 | 50 | 307 | 2.0 | 2.0 | 0.00 | 0.43 | 0.00 | 93 | 1047.8 |
| 20260510001507 | 50 | 307 | 1.0 | 2.0 | 0.00 | 0.43 | 0.00 | 93 | 1047.8 |
| 20260510001430 | 50 | 307 | 1.0 | 2.0 | 0.00 | 0.43 | 0.00 | 93 | 1047.8 |
| 20260510001329 | 50 | 306 | 1.0 | 2.0 | 0.00 | 0.43 | 0.00 | 93 | 1047.8 |
| 20260510001229 | 50 | 307 | 1.0 | 2.0 | 0.00 | 0.43 | 0.00 | 93 | 1047.9 |
| 20260510001128 | 50 | 307 | 1.0 | 2.0 | 0.00 | 0.43 | 0.00 | 93 | 1047.9 |
| 20260510001059 | 50 | 307 | 1.0 | 2.0 | 0.00 | 0.43 | 0.00 | 93 | 1047.9 |
| 20260510001052 | 50 | 307 | 1.0 | 2.0 | 0.00 | 0.43 | 0.00 | 93 | 1047.9 |
| 20260510000728 | 50 | 307 | 1.0 | 2.0 | 0.00 | 0.43 | 0.00 | 93 | 1047.9 |
| 20260510000629 | 50 | 307 | 0.0 | 2.0 | 0.00 | 0.43 | 0.00 | 93 | 1047.9 |
| 20260510000528 | 50 | 308 | 0.0 | 2.0 | 0.00 | 0.43 | 0.00 | 93 | 1047.9 |
| 20260510000507 | 50 | 307 | 0.0 | 2.0 | 0.00 | 0.43 | 0.00 | 93 | 1047.9 |
| 20260510000429 | 50 | 307 | 0.0 | 2.0 | 0.00 | 0.43 | 0.00 | 93 | 1047.9 |
| 20260510000328 | 50 | 307 | 1.0 | 2.0 | 0.00 | 0.43 | 0.00 | 93 | 1047.9 |
| 20260510000229 | 50 | 307 | 1.0 | 2.0 | 0.00 | 0.43 | 0.00 | 93 | 1047.9 |
| 20260510000129 | 50 | 307 | 1.0 | 2.0 | 0.00 | 0.43 | 0.00 | 93 | 1047.9 |
| 20260510000028 | 50 | 307 | 1.0 | 3.0 | 0.00 | 0.43 | 0.00 | 93 | 1047.9 |
| 20260510000009 | 50 | 359 | 1.0 | 3.0 | 0.00 | 0.43 | 0.00 | 93 | 1047.9 |
| 20260509235928 | 50 | 307 | 1.0 | 3.0 | 0.00 | 0.43 | 0.00 | 93 | 1048.0 |
| 20260509235829 | 50 | 307 | 1.0 | 3.0 | 0.00 | 0.43 | 0.00 | 93 | 1048.0 |
| 20260509235728 | 50 | 307 | 1.0 | 3.0 | 0.00 | 0.43 | 0.00 | 93 | 1048.0 |
| 20260509235629 | 50 | 307 | 2.0 | 3.0 | 0.00 | 0.43 | 0.00 | 93 | 1048.0 |
| 20260509235529 | 50 | 359 | 2.0 | 3.0 | 0.00 | 0.43 | 0.00 | 93 | 1048.1 |
| 20260509235507 | 51 | 307 | 2.0 | 3.0 | 0.00 | 0.43 | 0.00 | 93 | 1048.1 |
| 20260509235429 | 51 | 307 | 2.0 | 3.0 | 0.00 | 0.43 | 0.00 | 93 | 1048.1 |
| 20260509235328 | 51 | 307 | 2.0 | 3.0 | 0.00 | 0.43 | 0.00 | 93 | 1048.1 |
| 20260509235228 | 51 | 307 | 2.0 | 3.0 | 0.00 | 0.43 | 0.00 | 93 | 1048.1 |
| 20260509235129 | 51 | 307 | 2.0 | 3.0 | 0.00 | 0.43 | 0.00 | 93 | 1048.1 |
| 20260509235059 | 51 | 307 | 2.0 | 3.0 | 0.00 | 0.43 | 0.00 | 93 | 1048.1 |
| 20260509235051 | 51 | 306 | 2.0 | 3.0 | 0.00 | 0.43 | 0.00 | 93 | 1048.1 |
| 20260509234729 | 51 | 307 | 2.0 | 3.0 | 0.00 | 0.43 | 0.00 | 93 | 1048.2 |
| 20260509234715 | 51 | 307 | 2.0 | 3.0 | 0.00 | 0.43 | 0.00 | 93 | 1048.2 |
| 20260509234653 | 51 | 307 | 2.0 | 3.0 | 0.00 | 0.43 | 0.00 | 93 | 1048.2 |
| 20260509234328 | 51 | 307 | 2.0 | 3.0 | 0.00 | 0.43 | 0.00 | 93 | 1048.2 |
| 20260509234245 | 51 | 306 | 2.0 | 3.0 | 0.00 | 0.43 | 0.00 | 93 | 1048.2 |
| 20260509234237 | 51 | 307 | 2.0 | 3.0 | 0.00 | 0.43 | 0.00 | 93 | 1048.2 |
| 20260509234226 | 51 | 307 | 2.0 | 3.0 | 0.00 | 0.43 | 0.00 | 93 | 1048.2 |
| 20260509233951 | 51 | 306 | 2.0 | 3.0 | 0.00 | 0.43 | 0.00 | 93 | 1048.2 |
| 20260509233943 | 51 | 307 | 2.0 | 3.0 | 0.00 | 0.43 | 0.00 | 93 | 1048.3 |
| 20260509233928 | 51 | 307 | 2.0 | 3.0 | 0.00 | 0.43 | 0.00 | 93 | 1048.4 |
| 20260509233649 | 51 | 307 | 2.0 | 5.0 | 0.00 | 0.43 | 0.00 | 93 | 1048.4 |
| 20260509233352 | 51 | 307 | 2.0 | 5.0 | 0.00 | 0.43 | 0.00 | 93 | 1048.4 |
| 20260509233346 | 51 | 306 | 2.0 | 5.0 | 0.00 | 0.43 | 0.00 | 93 | 1048.4 |
| 20260509233006 | 51 | 307 | 3.0 | 5.0 | 0.00 | 0.43 | 0.00 | 93 | 1048.4 |
| 20260509232916 | 51 | 306 | 3.0 | 5.0 | 0.00 | 0.43 | 0.00 | 93 | 1048.4 |
| 20260509232817 | 51 | 307 | 3.0 | 5.0 | 0.00 | 0.43 | 0.00 | 93 | 1048.4 |
| 20260509232717 | 51 | 359 | 3.0 | 5.0 | 0.00 | 0.43 | 0.00 | 93 | 1048.4 |
| 20260509232616 | 51 | 308 | 2.0 | 5.0 | 0.00 | 0.43 | 0.00 | 93 | 1048.4 |
| 20260509232513 | 51 | 308 | 2.0 | 5.0 | 0.00 | 0.43 | 0.00 | 93 | 1048.4 |
| 20260509232412 | 51 | 308 | 2.0 | 5.0 | 0.00 | 0.43 | 0.00 | 93 | 1048.4 |
| 20260509232313 | 51 | 308 | 2.0 | 5.0 | 0.00 | 0.43 | 0.00 | 93 | 1048.4 |
| 20260509232212 | 51 | 308 | 2.0 | 5.0 | 0.00 | 0.43 | 0.00 | 93 | 1048.4 |
| 20260509232112 | 51 | 310 | 2.0 | 4.0 | 0.00 | 0.43 | 0.00 | 93 | 1048.4 |
| 20260509232006 | 51 | 310 | 2.0 | 3.0 | 0.00 | 0.43 | 0.00 | 93 | 1048.4 |
| 20260509231908 | 51 | 359 | 2.0 | 3.0 | 0.00 | 0.43 | 0.00 | 93 | 1048.4 |
| 20260509231808 | 51 | 310 | 2.0 | 3.0 | 0.00 | 0.43 | 0.00 | 93 | 1048.3 |
| 20260509231708 | 51 | 310 | 2.0 | 3.0 | 0.00 | 0.43 | 0.00 | 93 | 1048.3 |
| 20260509231609 | 51 | 310 | 2.0 | 3.0 | 0.00 | 0.43 | 0.00 | 93 | 1048.3 |
| 20260509231515 | 51 | 310 | 2.0 | 3.0 | 0.00 | 0.43 | 0.00 | 93 | 1048.3 |
| 20260509231503 | 51 | 310 | 2.0 | 3.0 | 0.00 | 0.43 | 0.00 | 93 | 1048.3 |
| 20260509231408 | 51 | 310 | 2.0 | 3.0 | 0.00 | 0.43 | 0.00 | 93 | 1048.3 |
| 20260509231306 | 51 | 310 | 2.0 | 4.0 | 0.00 | 0.43 | 0.00 | 93 | 1048.3 |
| 20260509231209 | 51 | 310 | 2.0 | 4.0 | 0.00 | 0.43 | 0.00 | 93 | 1048.3 |
| 20260509231145 | 51 | 310 | 2.0 | 4.0 | 0.00 | 0.43 | 0.00 | 93 | 1048.3 |
| 20260509231140 | 51 | 310 | 2.0 | 4.0 | 0.00 | 0.43 | 0.00 | 93 | 1048.3 |
| 20260509231130 | 51 | 310 | 2.0 | 4.0 | 0.00 | 0.43 | 0.00 | 93 | 1048.3 |
| 20260509230804 | 52 | 310 | 2.0 | 4.0 | 0.00 | 0.43 | 0.00 | 93 | 1048.4 |
| 20260509230753 | 52 | 310 | 2.0 | 4.0 | 0.00 | 0.43 | 0.00 | 93 | 1048.4 |
| 20260509230747 | 52 | 359 | 2.0 | 4.0 | 0.00 | 0.43 | 0.00 | 93 | 1048.4 |
| 20260509230510 | 52 | 310 | 2.0 | 4.0 | 0.00 | 0.43 | 0.00 | 93 | 1048.4 |
| 20260509230417 | 52 | 310 | 2.0 | 4.0 | 0.00 | 0.43 | 0.00 | 93 | 1048.4 |
| 20260509230304 | 52 | 310 | 2.0 | 4.0 | 0.00 | 0.43 | 0.00 | 93 | 1048.5 |
| 20260509230202 | 52 | 310 | 2.0 | 4.0 | 0.00 | 0.43 | 0.00 | 93 | 1048.4 |
| 20260509230006 | 52 | 310 | 2.0 | 4.0 | 0.00 | 0.43 | 0.00 | 93 | 1048.4 |
| 20260509225900 | 52 | 310 | 2.0 | 4.0 | 0.00 | 0.43 | 0.00 | 93 | 1048.4 |
| 20260509225758 | 52 | 310 | 2.0 | 4.0 | 0.00 | 0.43 | 0.00 | 93 | 1048.4 |
| 20260509225659 | 52 | 310 | 2.0 | 4.0 | 0.00 | 0.43 | 0.00 | 93 | 1048.4 |
| 20260509225557 | 52 | 310 | 2.0 | 4.0 | 0.00 | 0.43 | 0.00 | 93 | 1048.4 |
| 20260509225454 | 52 | 310 | 2.0 | 4.0 | 0.00 | 0.43 | 0.00 | 93 | 1048.4 |
| 20260509225355 | 52 | 310 | 2.0 | 4.0 | 0.00 | 0.43 | 0.00 | 93 | 1048.4 |
| 20260509225252 | 52 | 310 | 2.0 | 3.0 | 0.00 | 0.43 | 0.00 | 93 | 1048.4 |
| 20260509225152 | 52 | 310 | 2.0 | 3.0 | 0.00 | 0.43 | 0.00 | 93 | 1048.4 |
| 20260509225051 | 52 | 310 | 2.0 | 3.0 | 0.00 | 0.43 | 0.00 | 93 | 1048.4 |
| 20260509224949 | 52 | 310 | 2.0 | 4.0 | 0.00 | 0.43 | 0.00 | 93 | 1048.4 |
| 20260509224936 | 52 | 310 | 2.0 | 4.0 | 0.00 | 0.43 | 0.00 | 93 | 1048.4 |
| 20260509224928 | 52 | 310 | 2.0 | 4.0 | 0.00 | 0.43 | 0.00 | 93 | 1048.4 |
| 20260509224916 | 52 | 310 | 2.0 | 4.0 | 0.00 | 0.43 | 0.00 | 93 | 1048.5 |
| 20260509224907 | 52 | 310 | 2.0 | 4.0 | 0.00 | 0.43 | 0.00 | 93 | 1048.5 |
| 20260509224632 | 52 | 310 | 2.0 | 4.0 | 0.00 | 0.43 | 0.00 | 93 | 1048.5 |
| 20260509224622 | 52 | 310 | 2.0 | 4.0 | 0.00 | 0.43 | 0.00 | 93 | 1048.5 |
| 20260509224041 | 52 | 310 | 2.0 | 4.0 | 0.00 | 0.43 | 0.00 | 93 | 1048.5 |
| 20260509223941 | 52 | 310 | 2.0 | 4.0 | 0.00 | 0.43 | 0.00 | 93 | 1048.5 |
| 20260509223841 | 52 | 310 | 2.0 | 4.0 | 0.00 | 0.43 | 0.00 | 93 | 1048.5 |
| 20260509223808 | 52 | 310 | 2.0 | 4.0 | 0.00 | 0.43 | 0.00 | 93 | 1048.5 |
| 20260509223801 | 52 | 310 | 2.0 | 4.0 | 0.00 | 0.43 | 0.00 | 93 | 1048.5 |
| 20260509223459 | 52 | 310 | 2.0 | 4.0 | 0.00 | 0.43 | 0.00 | 93 | 1048.5 |
| 20260509223441 | 52 | 310 | 2.0 | 4.0 | 0.00 | 0.43 | 0.00 | 93 | 1048.4 |
| 20260509223340 | 52 | 310 | 2.0 | 4.0 | 0.00 | 0.43 | 0.00 | 93 | 1048.5 |
| 20260509223241 | 52 | 310 | 2.0 | 4.0 | 0.00 | 0.43 | 0.00 | 93 | 1048.5 |
| 20260509223143 | 52 | 310 | 2.0 | 4.0 | 0.00 | 0.43 | 0.00 | 93 | 1048.5 |
| 20260509223111 | 52 | 310 | 2.0 | 4.0 | 0.00 | 0.43 | 0.00 | 93 | 1048.5 |
| 20260509223053 | 52 | 310 | 2.0 | 4.0 | 0.00 | 0.43 | 0.00 | 93 | 1048.5 |
| 20260509222748 | 52 | 310 | 2.0 | 4.0 | 0.00 | 0.43 | 0.00 | 92 | 1048.5 |
| 20260509222740 | 52 | 310 | 2.0 | 4.0 | 0.00 | 0.43 | 0.00 | 93 | 1048.4 |
| 20260509222729 | 52 | 310 | 2.0 | 4.0 | 0.00 | 0.43 | 0.00 | 93 | 1048.4 |
| 20260509222717 | 52 | 310 | 2.0 | 3.0 | 0.00 | 0.43 | 0.00 | 93 | 1048.4 |
| 20260509222454 | 52 | 310 | 2.0 | 3.0 | 0.00 | 0.43 | 0.00 | 93 | 1048.4 |
| 20260509222131 | 53 | 310 | 2.0 | 3.0 | 0.00 | 0.43 | 0.00 | 93 | 1048.4 |
| 20260509222045 | 53 | 310 | 2.0 | 3.0 | 0.00 | 0.43 | 0.00 | 93 | 1048.4 |
| 20260509222028 | 53 | 310 | 2.0 | 3.0 | 0.00 | 0.43 | 0.00 | 92 | 1048.4 |
| 20260509222011 | 53 | 310 | 2.0 | 3.0 | 0.00 | 0.43 | 0.00 | 92 | 1048.3 |
| 20260509222002 | 53 | 312 | 2.0 | 3.0 | 0.00 | 0.43 | 0.00 | 92 | 1048.3 |
| 20260509221457 | 53 | 310 | 2.0 | 3.0 | 0.00 | 0.43 | 0.00 | 92 | 1048.3 |
| 20260509221411 | 53 | 310 | 2.0 | 3.0 | 0.00 | 0.43 | 0.00 | 92 | 1048.3 |
| 20260509221345 | 53 | 310 | 2.0 | 3.0 | 0.00 | 0.43 | 0.00 | 93 | 1048.3 |
| 20260509221337 | 53 | 310 | 2.0 | 3.0 | 0.00 | 0.43 | 0.00 | 93 | 1048.3 |
| 20260509221329 | 53 | 359 | 2.0 | 3.0 | 0.00 | 0.43 | 0.00 | 93 | 1048.3 |
| 20260509221320 | 53 | 312 | 2.0 | 3.0 | 0.00 | 0.43 | 0.00 | 93 | 1048.3 |
| 20260509221310 | 53 | 310 | 2.0 | 3.0 | 0.00 | 0.43 | 0.00 | 93 | 1048.3 |
| 20260509221040 | 53 | 310 | 2.0 | 3.0 | 0.00 | 0.43 | 0.00 | 93 | 1048.3 |
| 20260509220510 | 53 | 310 | 2.0 | 3.0 | 0.00 | 0.43 | 0.00 | 93 | 1048.3 |
| 20260509220457 | 53 | 310 | 2.0 | 3.0 | 0.00 | 0.43 | 0.00 | 93 | 1048.3 |
| 20260509220400 | 53 | 310 | 2.0 | 3.0 | 0.00 | 0.43 | 0.00 | 92 | 1048.3 |
| 20260509220259 | 53 | 310 | 2.0 | 3.0 | 0.00 | 0.43 | 0.00 | 92 | 1048.3 |
| 20260509220159 | 53 | 310 | 2.0 | 2.0 | 0.00 | 0.43 | 0.00 | 92 | 1048.3 |
| 20260509220127 | 53 | 310 | 2.0 | 3.0 | 0.00 | 0.43 | 0.00 | 92 | 1048.3 |
| 20260509220108 | 53 | 310 | 2.0 | 4.0 | 0.00 | 0.43 | 0.43 | 92 | 1048.3 |
| 20260509220054 | 53 | 310 | 2.0 | 4.0 | 0.00 | 0.43 | 0.43 | 92 | 1048.4 |
| 20260509220040 | 53 | 310 | 2.0 | 4.0 | 0.00 | 0.43 | 0.43 | 92 | 1048.4 |
| 20260509220031 | 53 | 310 | 2.0 | 4.0 | 0.00 | 0.43 | 0.43 | 92 | 1048.4 |
| 20260509215519 | 54 | 310 | 1.0 | 4.0 | 0.00 | 0.43 | 0.43 | 93 | 1048.4 |
| 20260509215500 | 54 | 310 | 1.0 | 4.0 | 0.00 | 0.43 | 0.43 | 93 | 1048.4 |
| 20260509215450 | 54 | 310 | 2.0 | 4.0 | 0.00 | 0.43 | 0.43 | 93 | 1048.4 |
| 20260509215220 | 54 | 310 | 1.0 | 3.0 | 0.00 | 0.43 | 0.43 | 93 | 1048.4 |
| 20260509214944 | 54 | 310 | 1.0 | 2.0 | 0.00 | 0.43 | 0.43 | 93 | 1048.4 |
| 20260509214929 | 54 | 310 | 1.0 | 2.0 | 0.00 | 0.43 | 0.43 | 93 | 1048.4 |
| 20260509214920 | 54 | 310 | 1.0 | 2.0 | 0.00 | 0.43 | 0.43 | 93 | 1048.4 |
| 20260509214644 | 54 | 310 | 1.0 | 2.0 | 0.00 | 0.43 | 0.43 | 92 | 1048.3 |
| 20260509214625 | 54 | 310 | 1.0 | 2.0 | 0.00 | 0.43 | 0.43 | 92 | 1048.3 |
| 20260509214356 | 54 | 310 | 1.0 | 2.0 | 0.00 | 0.43 | 0.43 | 92 | 1048.3 |
| 20260509214033 | 54 | 310 | 1.0 | 2.0 | 0.00 | 0.43 | 0.43 | 93 | 1048.3 |
| 20260509214007 | 54 | 310 | 1.0 | 2.0 | 0.00 | 0.43 | 0.43 | 93 | 1048.2 |
| 20260509213959 | 54 | 310 | 1.0 | 2.0 | 0.00 | 0.43 | 0.43 | 93 | 1048.2 |
| 20260509213632 | 54 | 310 | 2.0 | 3.0 | 0.00 | 0.43 | 0.43 | 93 | 1048.3 |
| 20260509213532 | 54 | 310 | 2.0 | 3.0 | 0.00 | 0.43 | 0.43 | 93 | 1048.3 |
| 20260509213431 | 54 | 310 | 2.0 | 3.0 | 0.00 | 0.43 | 0.43 | 93 | 1048.3 |
| 20260509213331 | 54 | 310 | 2.0 | 3.0 | 0.00 | 0.43 | 0.43 | 93 | 1048.3 |
| 20260509213231 | 54 | 310 | 2.0 | 3.0 | 0.00 | 0.43 | 0.43 | 93 | 1048.3 |
| 20260509213130 | 54 | 310 | 2.0 | 3.0 | 0.00 | 0.43 | 0.43 | 93 | 1048.3 |
| 20260509213030 | 54 | 310 | 2.0 | 3.0 | 0.00 | 0.43 | 0.43 | 93 | 1048.3 |
| 20260509213007 | 54 | 310 | 2.0 | 3.0 | 0.00 | 0.43 | 0.43 | 93 | 1048.3 |
| 20260509212959 | 54 | 311 | 2.0 | 3.0 | 0.00 | 0.43 | 0.43 | 93 | 1048.3 |
| 20260509212951 | 54 | 310 | 2.0 | 3.0 | 0.00 | 0.43 | 0.43 | 93 | 1048.3 |
| 20260509212628 | 54 | 310 | 1.0 | 3.0 | 0.00 | 0.43 | 0.43 | 93 | 1048.3 |
| 20260509212525 | 54 | 310 | 1.0 | 3.0 | 0.00 | 0.43 | 0.43 | 93 | 1048.3 |
| 20260509212425 | 54 | 310 | 1.0 | 3.0 | 0.00 | 0.43 | 0.43 | 93 | 1048.3 |
| 20260509212323 | 54 | 310 | 1.0 | 3.0 | 0.00 | 0.43 | 0.43 | 93 | 1048.4 |
| 20260509212222 | 54 | 310 | 1.0 | 2.0 | 0.00 | 0.43 | 0.43 | 93 | 1048.3 |
| 20260509212120 | 54 | 310 | 1.0 | 2.0 | 0.00 | 0.43 | 0.43 | 93 | 1048.3 |
| 20260509212024 | 54 | 310 | 1.0 | 2.0 | 0.00 | 0.43 | 0.43 | 93 | 1048.4 |
| 20260509211919 | 54 | 310 | 1.0 | 2.0 | 0.00 | 0.43 | 0.43 | 93 | 1048.4 |
| 20260509211818 | 54 | 310 | 1.0 | 2.0 | 0.00 | 0.43 | 0.43 | 93 | 1048.3 |
| 20260509211715 | 54 | 310 | 1.0 | 2.0 | 0.00 | 0.43 | 0.43 | 93 | 1048.4 |
| 20260509211610 | 54 | 310 | 1.0 | 2.0 | 0.00 | 0.43 | 0.43 | 93 | 1048.4 |
| 20260509211509 | 54 | 310 | 1.0 | 2.0 | 0.00 | 0.43 | 0.43 | 93 | 1048.3 |
| 20260509211410 | 54 | 310 | 1.0 | 2.0 | 0.00 | 0.43 | 0.43 | 93 | 1048.3 |
| 20260509211307 | 54 | 312 | 1.0 | 2.0 | 0.00 | 0.43 | 0.43 | 93 | 1048.3 |
| 20260509211204 | 54 | 310 | 1.0 | 2.0 | 0.00 | 0.43 | 0.43 | 93 | 1048.3 |
| 20260509211104 | 54 | 310 | 1.0 | 2.0 | 0.00 | 0.43 | 0.43 | 93 | 1048.3 |
| 20260509211003 | 54 | 310 | 1.0 | 2.0 | 0.00 | 0.43 | 0.43 | 93 | 1048.3 |
| 20260509210934 | 54 | 310 | 1.0 | 2.0 | 0.00 | 0.43 | 0.43 | 93 | 1048.3 |
| 20260509210928 | 54 | 310 | 1.0 | 2.0 | 0.00 | 0.43 | 0.43 | 93 | 1048.3 |
| 20260509210603 | 54 | 310 | 1.0 | 2.0 | 0.00 | 0.43 | 0.43 | 93 | 1048.2 |
| 20260509210525 | 54 | 310 | 1.0 | 2.0 | 0.00 | 0.43 | 0.43 | 93 | 1048.2 |
| 20260509210514 | 54 | 310 | 1.0 | 2.0 | 0.00 | 0.43 | 0.43 | 93 | 1048.2 |
| 20260509210507 | 54 | 310 | 1.0 | 3.0 | 0.00 | 0.43 | 0.43 | 93 | 1048.2 |
| 20260509210458 | 54 | 310 | 1.0 | 3.0 | 0.00 | 0.43 | 0.43 | 93 | 1048.2 |
| 20260509210446 | 54 | 310 | 2.0 | 3.0 | 0.00 | 0.43 | 0.43 | 93 | 1048.2 |
| 20260509205931 | 54 | 310 | 2.0 | 3.0 | 0.00 | 0.43 | 0.43 | 93 | 1048.2 |
| 20260509205923 | 54 | 310 | 2.0 | 3.0 | 0.00 | 0.43 | 0.43 | 92 | 1048.2 |
| 20260509205603 | 54 | 311 | 2.0 | 3.0 | 0.00 | 0.43 | 0.43 | 92 | 1048.2 |
| 20260509205511 | 54 | 310 | 2.0 | 3.0 | 0.00 | 0.43 | 0.43 | 92 | 1048.2 |
| 20260509205452 | 54 | 310 | 2.0 | 3.0 | 0.00 | 0.43 | 0.43 | 92 | 1048.2 |
| 20260509205442 | 54 | 310 | 2.0 | 3.0 | 0.00 | 0.43 | 0.43 | 92 | 1048.3 |
| 20260509205427 | 54 | 310 | 2.0 | 3.0 | 0.00 | 0.43 | 0.43 | 92 | 1048.2 |
| 20260509205418 | 55 | 310 | 2.0 | 3.0 | 0.00 | 0.43 | 0.43 | 92 | 1048.3 |
| 20260509205148 | 55 | 359 | 2.0 | 3.0 | 0.00 | 0.43 | 0.43 | 92 | 1048.2 |
| 20260509204916 | 55 | 310 | 2.0 | 3.0 | 0.00 | 0.43 | 0.43 | 92 | 1048.2 |
| 20260509204903 | 55 | 310 | 1.0 | 3.0 | 0.00 | 0.43 | 0.43 | 92 | 1048.2 |
| 20260509204853 | 55 | 310 | 1.0 | 3.0 | 0.00 | 0.43 | 0.43 | 92 | 1048.2 |
| 20260509204626 | 55 | 310 | 1.0 | 3.0 | 0.00 | 0.43 | 0.43 | 92 | 1048.2 |
| 20260509204303 | 55 | 310 | 1.0 | 2.0 | 0.00 | 0.43 | 0.43 | 92 | 1048.1 |
| 20260509204206 | 55 | 310 | 1.0 | 2.0 | 0.00 | 0.43 | 0.43 | 92 | 1048.1 |
| 20260509204104 | 55 | 310 | 1.0 | 2.0 | 0.00 | 0.43 | 0.43 | 92 | 1048.1 |
| 20260509204003 | 55 | 310 | 1.0 | 2.0 | 0.00 | 0.43 | 0.43 | 92 | 1048.1 |
| 20260509203905 | 55 | 310 | 1.0 | 2.0 | 0.00 | 0.43 | 0.43 | 92 | 1048.1 |
| 20260509203803 | 55 | 310 | 1.0 | 2.0 | 0.00 | 0.43 | 0.43 | 92 | 1048.1 |
| 20260509203704 | 55 | 310 | 1.0 | 2.0 | 0.00 | 0.43 | 0.43 | 92 | 1048.1 |
| 20260509203626 | 55 | 310 | 1.0 | 2.0 | 0.00 | 0.43 | 0.43 | 92 | 1048.1 |
| 20260509203614 | 55 | 310 | 1.0 | 2.0 | 0.00 | 0.43 | 0.43 | 92 | 1048.0 |
| 20260509203552 | 55 | 310 | 0.0 | 2.0 | 0.00 | 0.43 | 0.43 | 92 | 1048.1 |
| 20260509203328 | 55 | 310 | 0.0 | 2.0 | 0.00 | 0.43 | 0.43 | 92 | 1048.0 |
| 20260509203003 | 55 | 310 | 0.0 | 1.0 | 0.00 | 0.43 | 0.43 | 92 | 1048.0 |
| 20260509202905 | 55 | 310 | 0.0 | 1.0 | 0.00 | 0.43 | 0.43 | 92 | 1048.0 |
| 20260509202824 | 55 | 310 | 0.0 | 1.0 | 0.00 | 0.43 | 0.43 | 92 | 1047.9 |
| 20260509202816 | 55 | 310 | 0.0 | 2.0 | 0.00 | 0.43 | 0.43 | 92 | 1048.0 |
| 20260509202810 | 55 | 310 | 0.0 | 2.0 | 0.00 | 0.43 | 0.43 | 92 | 1048.0 |
| 20260509202539 | 55 | 311 | 1.0 | 2.0 | 0.00 | 0.43 | 0.43 | 92 | 1048.0 |
| 20260509202532 | 55 | 310 | 1.0 | 2.0 | 0.00 | 0.43 | 0.43 | 92 | 1048.0 |
| 20260509202523 | 55 | 310 | 1.0 | 2.0 | 0.00 | 0.43 | 0.43 | 92 | 1048.0 |
| 20260509202503 | 55 | 310 | 1.0 | 2.0 | 0.00 | 0.43 | 0.43 | 92 | 1048.0 |
| 20260509202452 | 55 | 310 | 1.0 | 2.0 | 0.00 | 0.43 | 0.43 | 92 | 1048.0 |
| 20260509202221 | 55 | 310 | 1.0 | 2.0 | 0.00 | 0.43 | 0.43 | 92 | 1048.0 |
| 20260509201952 | 55 | 310 | 1.0 | 2.0 | 0.00 | 0.43 | 0.43 | 92 | 1047.9 |
| 20260509201942 | 55 | 310 | 1.0 | 2.0 | 0.00 | 0.43 | 0.43 | 92 | 1047.9 |
| 20260509201422 | 55 | 310 | 1.0 | 3.0 | 0.00 | 0.43 | 0.43 | 92 | 1047.8 |
| 20260509201403 | 55 | 310 | 1.0 | 3.0 | 0.00 | 0.43 | 0.43 | 92 | 1047.8 |
| 20260509201301 | 55 | 310 | 1.0 | 3.0 | 0.00 | 0.43 | 0.43 | 92 | 1047.8 |
| 20260509201223 | 55 | 310 | 1.0 | 3.0 | 0.00 | 0.43 | 0.43 | 92 | 1047.8 |
| 20260509201217 | 55 | 310 | 1.0 | 3.0 | 0.00 | 0.43 | 0.43 | 92 | 1047.7 |
| 20260509200921 | 55 | 310 | 1.0 | 3.0 | 0.00 | 0.43 | 0.43 | 92 | 1047.7 |
| 20260509200856 | 55 | 310 | 1.0 | 3.0 | 0.00 | 0.43 | 0.43 | 92 | 1047.7 |
| 20260509200756 | 55 | 310 | 1.0 | 3.0 | 0.00 | 0.43 | 0.43 | 92 | 1047.7 |
| 20260509200728 | 55 | 310 | 1.0 | 3.0 | 0.00 | 0.43 | 0.43 | 92 | 1047.6 |
| 20260509200719 | 55 | 310 | 1.0 | 3.0 | 0.00 | 0.43 | 0.43 | 92 | 1047.7 |
| 20260509200421 | 55 | 310 | 1.0 | 3.0 | 0.00 | 0.43 | 0.43 | 92 | 1047.6 |
| 20260509200355 | 55 | 310 | 1.0 | 3.0 | 0.00 | 0.43 | 0.43 | 92 | 1047.6 |
| 20260509200256 | 55 | 310 | 1.0 | 2.0 | 0.00 | 0.43 | 0.43 | 92 | 1047.6 |
| 20260509200156 | 55 | 310 | 1.0 | 2.0 | 0.00 | 0.43 | 0.43 | 92 | 1047.6 |
| 20260509200056 | 55 | 310 | 1.0 | 2.0 | 0.00 | 0.43 | 0.43 | 92 | 1047.5 |
| 20260509195955 | 55 | 310 | 1.0 | 2.0 | 0.00 | 0.43 | 0.43 | 92 | 1047.5 |
| 20260509195921 | 55 | 310 | 1.0 | 2.0 | 0.00 | 0.43 | 0.43 | 92 | 1047.5 |
| 20260509195855 | 55 | 310 | 1.0 | 2.0 | 0.00 | 0.43 | 0.43 | 92 | 1047.5 |
| 20260509195755 | 55 | 310 | 1.0 | 2.0 | 0.00 | 0.43 | 0.43 | 92 | 1047.5 |
| 20260509195723 | 55 | 310 | 1.0 | 2.0 | 0.00 | 0.43 | 0.43 | 92 | 1047.5 |
| 20260509195715 | 55 | 310 | 1.0 | 2.0 | 0.00 | 0.43 | 0.43 | 92 | 1047.4 |
| 20260509195649 | 55 | 310 | 1.0 | 3.0 | 0.00 | 0.43 | 0.43 | 92 | 1047.4 |
| 20260509195427 | 55 | 310 | 1.0 | 3.0 | 0.00 | 0.43 | 0.43 | 92 | 1047.4 |
| 20260509195045 | 55 | 310 | 1.0 | 3.0 | 0.00 | 0.43 | 0.43 | 92 | 1047.3 |
| 20260509194921 | 55 | 310 | 1.0 | 3.0 | 0.00 | 0.43 | 0.43 | 92 | 1047.3 |
| 20260509194845 | 55 | 310 | 1.0 | 3.0 | 0.00 | 0.43 | 0.43 | 92 | 1047.3 |
| 20260509194745 | 55 | 310 | 1.0 | 3.0 | 0.00 | 0.43 | 0.43 | 92 | 1047.2 |
| 20260509194647 | 55 | 311 | 1.0 | 3.0 | 0.00 | 0.43 | 0.43 | 91 | 1047.2 |
| 20260509194546 | 55 | 310 | 1.0 | 3.0 | 0.00 | 0.43 | 0.43 | 91 | 1047.2 |
| 20260509194448 | 55 | 359 | 1.0 | 3.0 | 0.00 | 0.43 | 0.43 | 91 | 1047.1 |
| 20260509194436 | 55 | 310 | 1.0 | 3.0 | 0.00 | 0.43 | 0.43 | 91 | 1047.1 |
| 20260509194428 | 55 | 310 | 1.0 | 3.0 | 0.00 | 0.43 | 0.43 | 91 | 1047.1 |
| 20260509194416 | 55 | 310 | 1.0 | 3.0 | 0.00 | 0.43 | 0.43 | 91 | 1047.0 |
| 20260509194407 | 55 | 310 | 0.0 | 2.0 | 0.00 | 0.43 | 0.43 | 91 | 1047.0 |
| 20260509194138 | 55 | 310 | 0.0 | 1.0 | 0.00 | 0.43 | 0.43 | 91 | 1046.9 |
| 20260509194128 | 55 | 310 | 0.0 | 1.0 | 0.00 | 0.43 | 0.43 | 92 | 1046.9 |
| 20260509194119 | 55 | 310 | 0.0 | 0.0 | 0.00 | 0.43 | 0.43 | 92 | 1046.9 |
| 20260509193847 | 55 | 310 | 0.0 | 0.0 | 0.00 | 0.43 | 0.43 | 92 | 1046.8 |
| 20260509193838 | 55 | 310 | 0.0 | 1.0 | 0.00 | 0.43 | 0.43 | 92 | 1046.8 |
| 20260509193607 | 55 | 310 | 0.0 | 1.0 | 0.00 | 0.43 | 0.43 | 92 | 1046.8 |
| 20260509193559 | 55 | 310 | 0.0 | 1.0 | 0.00 | 0.43 | 0.43 | 92 | 1046.8 |
| 20260509193553 | 56 | 310 | 0.0 | 1.0 | 0.00 | 0.43 | 0.43 | 91 | 1046.8 |
| 20260509193541 | 56 | 310 | 0.0 | 1.0 | 0.00 | 0.43 | 0.43 | 92 | 1046.7 |
| 20260509193314 | 56 | 310 | 0.0 | 1.0 | 0.00 | 0.43 | 0.43 | 91 | 1046.8 |
| 20260509192802 | 56 | 310 | 0.0 | 1.0 | 0.00 | 0.43 | 0.43 | 91 | 1046.8 |
| 20260509192755 | 56 | 310 | 0.0 | 1.0 | 0.00 | 0.43 | 0.43 | 91 | 1046.8 |
| 20260509192426 | 56 | 310 | 0.0 | 1.0 | 0.00 | 0.43 | 0.43 | 91 | 1046.8 |
| 20260509192331 | 56 | 310 | 0.0 | 1.0 | 0.00 | 0.43 | 0.43 | 91 | 1046.7 |
| 20260509192232 | 56 | 310 | 0.0 | 1.0 | 0.00 | 0.43 | 0.43 | 91 | 1046.7 |
| 20260509192133 | 56 | 310 | 0.0 | 1.0 | 0.00 | 0.43 | 0.43 | 91 | 1046.6 |
| 20260509192031 | 56 | 310 | 0.0 | 1.0 | 0.00 | 0.43 | 0.43 | 91 | 1046.6 |
| 20260509191918 | 56 | 310 | 0.0 | 1.0 | 0.00 | 0.43 | 0.43 | 91 | 1046.6 |
| 20260509191832 | 56 | 310 | 0.0 | 1.0 | 0.00 | 0.43 | 0.43 | 91 | 1046.6 |
| 20260509191745 | 56 | 310 | 0.0 | 1.0 | 0.00 | 0.43 | 0.43 | 91 | 1046.6 |
| 20260509191738 | 56 | 310 | 0.0 | 1.0 | 0.00 | 0.43 | 0.43 | 91 | 1046.6 |
| 20260509191724 | 56 | 310 | 0.0 | 1.0 | 0.00 | 0.43 | 0.43 | 92 | 1046.6 |
| 20260509191455 | 56 | 310 | 0.0 | 1.0 | 0.00 | 0.43 | 0.43 | 92 | 1046.5 |
| 20260509191445 | 56 | 310 | 0.0 | 1.0 | 0.00 | 0.43 | 0.43 | 92 | 1046.5 |
| 20260509191123 | 56 | 310 | 0.0 | 2.0 | 0.00 | 0.43 | 0.43 | 92 | 1046.4 |
| 20260509191027 | 56 | 310 | 0.0 | 2.0 | 0.00 | 0.43 | 0.43 | 92 | 1046.4 |
| 20260509190952 | 56 | 310 | 0.0 | 2.0 | 0.00 | 0.43 | 0.43 | 92 | 1046.4 |
| 20260509190944 | 56 | 310 | 1.0 | 3.0 | 0.00 | 0.43 | 0.43 | 92 | 1046.5 |
| 20260509190615 | 56 | 312 | 1.0 | 3.0 | 0.00 | 0.43 | 0.43 | 92 | 1046.4 |
| 20260509190515 | 56 | 310 | 1.0 | 3.0 | 0.00 | 0.43 | 0.43 | 92 | 1046.4 |
| 20260509190453 | 56 | 310 | 1.0 | 3.0 | 0.00 | 0.43 | 0.43 | 92 | 1046.4 |
| 20260509190443 | 56 | 310 | 1.0 | 3.0 | 0.00 | 0.43 | 0.43 | 92 | 1046.3 |
| 20260509190155 | 56 | 359 | 1.0 | 3.0 | 0.00 | 0.43 | 0.43 | 92 | 1046.3 |
| 20260509190147 | 56 | 310 | 1.0 | 3.0 | 0.00 | 0.43 | 0.43 | 92 | 1046.3 |
| 20260509190129 | 56 | 310 | 1.0 | 3.0 | 0.00 | 0.43 | 0.43 | 92 | 1046.3 |
| 20260509185809 | 56 | 310 | 1.0 | 3.0 | 0.00 | 0.43 | 0.43 | 92 | 1046.4 |
| 20260509185724 | 56 | 310 | 1.0 | 3.0 | 0.00 | 0.43 | 0.43 | 92 | 1046.4 |
| 20260509185717 | 56 | 310 | 1.0 | 4.0 | 0.00 | 0.43 | 0.43 | 92 | 1046.4 |
| 20260509185710 | 56 | 310 | 1.0 | 4.0 | 0.00 | 0.43 | 0.43 | 92 | 1046.4 |
| 20260509185652 | 56 | 310 | 1.0 | 4.0 | 0.00 | 0.43 | 0.43 | 92 | 1046.4 |
| 20260509185643 | 56 | 310 | 1.0 | 4.0 | 0.00 | 0.43 | 0.43 | 92 | 1046.4 |
| 20260509185139 | 56 | 310 | 2.0 | 4.0 | 0.00 | 0.43 | 0.43 | 92 | 1046.3 |
| 20260509184903 | 56 | 310 | 2.0 | 4.0 | 0.00 | 0.43 | 0.43 | 92 | 1046.4 |
| 20260509184803 | 56 | 359 | 1.0 | 4.0 | 0.00 | 0.43 | 0.43 | 92 | 1046.3 |
| 20260509184703 | 56 | 310 | 1.0 | 6.0 | 0.00 | 0.43 | 0.43 | 92 | 1046.3 |
| 20260509184603 | 56 | 309 | 1.0 | 6.0 | 0.00 | 0.43 | 0.43 | 92 | 1046.2 |
| 20260509184504 | 56 | 309 | 1.0 | 6.0 | 0.00 | 0.43 | 0.43 | 92 | 1046.2 |
| 20260509184416 | 56 | 310 | 1.0 | 6.0 | 0.00 | 0.43 | 0.43 | 92 | 1046.3 |
| 20260509184403 | 56 | 309 | 1.0 | 6.0 | 0.00 | 0.43 | 0.43 | 92 | 1046.3 |
| 20260509184304 | 56 | 310 | 1.0 | 6.0 | 0.00 | 0.43 | 0.43 | 92 | 1046.2 |
| 20260509184203 | 56 | 310 | 1.0 | 6.0 | 0.00 | 0.43 | 0.43 | 92 | 1046.2 |
| 20260509184104 | 56 | 310 | 1.0 | 6.0 | 0.00 | 0.43 | 0.43 | 92 | 1046.2 |
| 20260509184003 | 56 | 310 | 1.0 | 6.0 | 0.00 | 0.43 | 0.43 | 92 | 1046.2 |
| 20260509183916 | 56 | 309 | 1.0 | 6.0 | 0.00 | 0.43 | 0.43 | 92 | 1046.2 |
| 20260509183903 | 56 | 310 | 1.0 | 6.0 | 0.00 | 0.43 | 0.43 | 92 | 1046.2 |
| 20260509183803 | 56 | 309 | 1.0 | 6.0 | 0.00 | 0.43 | 0.43 | 92 | 1046.1 |
| 20260509183703 | 56 | 308 | 1.0 | 3.0 | 0.00 | 0.43 | 0.43 | 92 | 1046.1 |
| 20260509183651 | 56 | 308 | 1.0 | 3.0 | 0.00 | 0.43 | 0.43 | 92 | 1046.1 |
| 20260509183638 | 56 | 308 | 2.0 | 5.0 | 0.00 | 0.43 | 0.43 | 92 | 1046.1 |
| 20260509183403 | 56 | 310 | 2.0 | 5.0 | 0.00 | 0.43 | 0.43 | 92 | 1046.1 |
| 20260509183303 | 56 | 310 | 2.0 | 5.0 | 0.00 | 0.43 | 0.43 | 92 | 1046.0 |
| 20260509183204 | 56 | 310 | 2.0 | 5.0 | 0.00 | 0.43 | 0.43 | 92 | 1046.0 |
| 20260509183103 | 56 | 309 | 2.0 | 5.0 | 0.00 | 0.43 | 0.43 | 92 | 1046.0 |
| 20260509182957 | 56 | 311 | 2.0 | 5.0 | 0.06 | 0.43 | 0.43 | 92 | 1046.0 |
| 20260509182910 | 56 | 310 | 2.0 | 5.0 | 0.06 | 0.43 | 0.43 | 92 | 1045.9 |
| 20260509182855 | 56 | 311 | 2.0 | 5.0 | 0.06 | 0.43 | 0.43 | 92 | 1045.9 |
| 20260509182755 | 56 | 311 | 2.0 | 5.0 | 0.06 | 0.43 | 0.43 | 92 | 1045.9 |
| 20260509182656 | 56 | 310 | 3.0 | 5.0 | 0.06 | 0.43 | 0.43 | 92 | 1045.9 |
| 20260509182639 | 56 | 310 | 3.0 | 5.0 | 0.06 | 0.43 | 0.43 | 92 | 1045.8 |
| 20260509182626 | 56 | 354 | 3.0 | 5.0 | 0.06 | 0.43 | 0.43 | 92 | 1045.9 |
| 20260509182355 | 56 | 354 | 3.0 | 5.0 | 0.06 | 0.43 | 0.43 | 92 | 1045.8 |
| 20260509182255 | 56 | 359 | 2.0 | 5.0 | 0.06 | 0.43 | 0.43 | 92 | 1045.8 |
| 20260509182155 | 56 | 359 | 2.0 | 5.0 | 0.06 | 0.43 | 0.43 | 92 | 1045.8 |
| 20260509182055 | 56 | 359 | 2.0 | 5.0 | 0.06 | 0.43 | 0.43 | 92 | 1045.8 |
| 20260509181955 | 56 | 359 | 2.0 | 5.0 | 0.06 | 0.43 | 0.43 | 92 | 1045.8 |
| 20260509181910 | 56 | 359 | 2.0 | 5.0 | 0.06 | 0.43 | 0.43 | 92 | 1045.8 |
| 20260509181858 | 56 | 359 | 2.0 | 5.0 | 0.06 | 0.43 | 0.43 | 92 | 1045.8 |
| 20260509181755 | 56 | 359 | 2.0 | 5.0 | 0.06 | 0.43 | 0.43 | 92 | 1045.8 |
| 20260509181742 | 56 | 359 | 2.0 | 5.0 | 0.06 | 0.43 | 0.43 | 92 | 1045.7 |
| 20260509181731 | 56 | 359 | 1.0 | 5.0 | 0.06 | 0.43 | 0.43 | 92 | 1045.7 |
| 20260509181456 | 56 | 4 | 1.0 | 4.0 | 0.06 | 0.43 | 0.43 | 92 | 1045.6 |
| 20260509181448 | 56 | 4 | 1.0 | 4.0 | 0.06 | 0.43 | 0.43 | 92 | 1045.6 |
| 20260509181438 | 56 | 4 | 1.0 | 4.0 | 0.06 | 0.43 | 0.43 | 92 | 1045.7 |
| 20260509181432 | 56 | 4 | 1.0 | 4.0 | 0.06 | 0.43 | 0.43 | 92 | 1045.6 |
| 20260509181423 | 56 | 4 | 1.0 | 4.0 | 0.06 | 0.43 | 0.43 | 92 | 1045.7 |
| 20260509181412 | 56 | 4 | 1.0 | 4.0 | 0.06 | 0.43 | 0.43 | 92 | 1045.6 |
| 20260509181359 | 56 | 4 | 0.0 | 4.0 | 0.06 | 0.43 | 0.43 | 92 | 1045.6 |
| 20260509180919 | 56 | 14 | 0.0 | 2.0 | 0.06 | 0.43 | 0.43 | 92 | 1045.6 |
| 20260509180909 | 56 | 14 | 0.0 | 2.0 | 0.06 | 0.43 | 0.43 | 92 | 1045.6 |
| 20260509180857 | 56 | 14 | 0.0 | 2.0 | 0.06 | 0.43 | 0.43 | 92 | 1045.6 |
| 20260509180631 | 56 | 14 | 0.0 | 2.0 | 0.06 | 0.43 | 0.43 | 92 | 1045.6 |
| 20260509180051 | 56 | 14 | 0.0 | 1.0 | 0.06 | 0.43 | 0.43 | 92 | 1045.6 |
| 20260509175949 | 56 | 14 | 0.0 | 2.0 | 0.06 | 0.43 | 0.43 | 92 | 1045.6 |
| 20260509175904 | 56 | 14 | 0.0 | 3.0 | 0.06 | 0.43 | 0.43 | 92 | 1045.6 |
| 20260509175850 | 56 | 14 | 0.0 | 3.0 | 0.06 | 0.43 | 0.43 | 92 | 1045.6 |
| 20260509175749 | 56 | 14 | 1.0 | 3.0 | 0.06 | 0.43 | 0.43 | 92 | 1045.6 |
| 20260509175649 | 56 | 14 | 1.0 | 3.0 | 0.06 | 0.43 | 0.43 | 92 | 1045.6 |
| 20260509175549 | 56 | 14 | 1.0 | 3.0 | 0.06 | 0.43 | 0.43 | 92 | 1045.6 |
| 20260509175515 | 56 | 14 | 1.0 | 4.0 | 0.06 | 0.43 | 0.43 | 92 | 1045.6 |
| 20260509175503 | 56 | 14 | 1.0 | 4.0 | 0.06 | 0.43 | 0.43 | 92 | 1045.5 |
| 20260509175456 | 56 | 14 | 1.0 | 4.0 | 0.06 | 0.43 | 0.43 | 92 | 1045.5 |
| 20260509175443 | 56 | 14 | 2.0 | 4.0 | 0.06 | 0.43 | 0.43 | 92 | 1045.6 |
| 20260509175217 | 56 | 14 | 2.0 | 4.0 | 0.06 | 0.43 | 0.43 | 92 | 1045.5 |
| 20260509175139 | 56 | 14 | 2.0 | 4.0 | 0.06 | 0.43 | 0.43 | 92 | 1045.5 |
| 20260509174912 | 56 | 14 | 1.0 | 4.0 | 0.06 | 0.43 | 0.43 | 92 | 1045.4 |
| 20260509174639 | 56 | 14 | 1.0 | 4.0 | 0.06 | 0.43 | 0.43 | 92 | 1045.4 |
| 20260509174609 | 56 | 14 | 1.0 | 3.0 | 0.06 | 0.43 | 0.43 | 92 | 1045.4 |
| 20260509174309 | 56 | 14 | 1.0 | 3.0 | 0.06 | 0.43 | 0.43 | 92 | 1045.2 |
| 20260509174301 | 56 | 14 | 1.0 | 3.0 | 0.06 | 0.43 | 0.43 | 92 | 1045.4 |
| 20260509174250 | 56 | 14 | 1.0 | 4.0 | 0.07 | 0.43 | 0.43 | 92 | 1045.2 |
| 20260509174230 | 56 | 14 | 1.0 | 4.0 | 0.07 | 0.43 | 0.43 | 92 | 1045.2 |
| 20260509173646 | 56 | 14 | 1.0 | 4.0 | 0.07 | 0.43 | 0.43 | 92 | 1045.2 |
| 20260509173545 | 56 | 14 | 2.0 | 4.0 | 0.07 | 0.43 | 0.43 | 92 | 1045.2 |
| 20260509173446 | 56 | 14 | 2.0 | 4.0 | 0.07 | 0.43 | 0.43 | 92 | 1045.4 |
| 20260509173404 | 56 | 14 | 2.0 | 4.0 | 0.08 | 0.43 | 0.43 | 92 | 1045.4 |
| 20260509173345 | 56 | 14 | 2.0 | 4.0 | 0.08 | 0.43 | 0.43 | 92 | 1045.4 |
| 20260509173245 | 56 | 14 | 2.0 | 4.0 | 0.08 | 0.43 | 0.43 | 92 | 1045.4 |
| 20260509173214 | 56 | 14 | 2.0 | 4.0 | 0.08 | 0.43 | 0.43 | 92 | 1045.4 |
| 20260509173207 | 56 | 14 | 2.0 | 4.0 | 0.08 | 0.43 | 0.38 | 92 | 1045.4 |
| 20260509172906 | 56 | 14 | 2.0 | 4.0 | 0.03 | 0.38 | 0.38 | 92 | 1045.4 |
| 20260509172845 | 56 | 14 | 2.0 | 4.0 | 0.03 | 0.38 | 0.38 | 92 | 1045.4 |
| 20260509172745 | 56 | 14 | 2.0 | 4.0 | 0.03 | 0.38 | 0.38 | 92 | 1045.4 |
| 20260509172645 | 56 | 14 | 2.0 | 4.0 | 0.03 | 0.38 | 0.38 | 92 | 1045.4 |
| 20260509172545 | 56 | 14 | 2.0 | 4.0 | 0.04 | 0.38 | 0.38 | 92 | 1045.4 |
| 20260509172530 | 56 | 15 | 2.0 | 4.0 | 0.04 | 0.38 | 0.38 | 92 | 1045.4 |
| 20260509172514 | 56 | 14 | 2.0 | 4.0 | 0.04 | 0.38 | 0.38 | 92 | 1045.4 |
| 20260509172507 | 56 | 14 | 2.0 | 4.0 | 0.04 | 0.38 | 0.38 | 92 | 1045.5 |
| 20260509172145 | 56 | 14 | 2.0 | 5.0 | 0.05 | 0.38 | 0.38 | 92 | 1045.4 |
| 20260509172047 | 56 | 14 | 2.0 | 5.0 | 0.05 | 0.38 | 0.38 | 92 | 1045.2 |
| 20260509171947 | 56 | 14 | 2.0 | 5.0 | 0.05 | 0.38 | 0.38 | 92 | 1045.2 |
| 20260509171904 | 56 | 14 | 2.0 | 5.0 | 0.06 | 0.38 | 0.38 | 92 | 1045.2 |
| 20260509171845 | 56 | 14 | 2.0 | 5.0 | 0.06 | 0.38 | 0.38 | 92 | 1045.2 |
| 20260509171745 | 56 | 15 | 2.0 | 5.0 | 0.06 | 0.38 | 0.38 | 92 | 1045.2 |
| 20260509171645 | 56 | 16 | 2.0 | 5.0 | 0.06 | 0.38 | 0.38 | 92 | 1045.2 |
| 20260509171545 | 56 | 15 | 2.0 | 5.0 | 0.06 | 0.38 | 0.38 | 92 | 1045.2 |
| 20260509171445 | 56 | 15 | 2.0 | 5.0 | 0.06 | 0.38 | 0.38 | 92 | 1045.2 |
| 20260509171404 | 56 | 15 | 2.0 | 5.0 | 0.06 | 0.38 | 0.38 | 92 | 1045.2 |
| 20260509171344 | 56 | 15 | 2.0 | 5.0 | 0.06 | 0.38 | 0.38 | 92 | 1045.2 |
| 20260509171321 | 56 | 16 | 2.0 | 5.0 | 0.07 | 0.38 | 0.38 | 92 | 1045.2 |
| 20260509171311 | 56 | 16 | 2.0 | 5.0 | 0.07 | 0.38 | 0.38 | 92 | 1045.4 |
| 20260509170951 | 56 | 16 | 2.0 | 5.0 | 0.08 | 0.38 | 0.38 | 92 | 1045.4 |
| 20260509170940 | 56 | 16 | 2.0 | 5.0 | 0.09 | 0.38 | 0.38 | 92 | 1045.4 |
| 20260509170931 | 56 | 16 | 2.0 | 5.0 | 0.09 | 0.38 | 0.38 | 92 | 1045.4 |
| 20260509170921 | 56 | 14 | 2.0 | 5.0 | 0.09 | 0.38 | 0.38 | 92 | 1045.4 |
| 20260509170915 | 56 | 14 | 2.0 | 5.0 | 0.09 | 0.38 | 0.38 | 92 | 1045.5 |
| 20260509170900 | 56 | 14 | 2.0 | 5.0 | 0.09 | 0.38 | 0.38 | 92 | 1045.5 |
| 20260509170849 | 56 | 14 | 2.0 | 5.0 | 0.09 | 0.38 | 0.38 | 92 | 1045.5 |
| 20260509170404 | 56 | 14 | 2.0 | 5.0 | 0.10 | 0.38 | 0.38 | 92 | 1045.6 |
| 20260509170354 | 56 | 14 | 2.0 | 7.0 | 0.10 | 0.38 | 0.38 | 91 | 1045.6 |
| 20260509170348 | 56 | 14 | 2.0 | 7.0 | 0.11 | 0.38 | 0.37 | 91 | 1045.7 |
| 20260509165841 | 56 | 16 | 2.0 | 7.0 | 0.11 | 0.37 | 0.37 | 91 | 1045.8 |
| 20260509165741 | 56 | 16 | 2.0 | 7.0 | 0.12 | 0.37 | 0.37 | 91 | 1045.9 |
| 20260509165640 | 56 | 16 | 2.0 | 7.0 | 0.12 | 0.37 | 0.37 | 91 | 1045.9 |
| 20260509165541 | 56 | 16 | 2.0 | 7.0 | 0.13 | 0.37 | 0.37 | 91 | 1045.9 |
| 20260509165441 | 56 | 16 | 2.0 | 7.0 | 0.13 | 0.37 | 0.37 | 91 | 1045.9 |
| 20260509165404 | 56 | 16 | 2.0 | 7.0 | 0.13 | 0.37 | 0.37 | 91 | 1045.9 |
| 20260509165341 | 56 | 16 | 2.0 | 7.0 | 0.13 | 0.37 | 0.37 | 91 | 1046.0 |
| 20260509165241 | 56 | 16 | 2.0 | 7.0 | 0.14 | 0.37 | 0.37 | 91 | 1046.1 |
| 20260509165212 | 56 | 16 | 2.0 | 7.0 | 0.14 | 0.37 | 0.37 | 91 | 1046.0 |
| 20260509165206 | 56 | 16 | 3.0 | 7.0 | 0.15 | 0.37 | 0.37 | 91 | 1046.1 |
| 20260509164903 | 56 | 17 | 3.0 | 7.0 | 0.16 | 0.37 | 0.37 | 91 | 1046.1 |
| 20260509164841 | 56 | 17 | 3.0 | 7.0 | 0.16 | 0.37 | 0.37 | 91 | 1046.1 |
| 20260509164741 | 56 | 17 | 3.0 | 7.0 | 0.16 | 0.37 | 0.37 | 91 | 1046.1 |
| 20260509164646 | 56 | 16 | 3.0 | 8.0 | 0.17 | 0.37 | 0.37 | 91 | 1046.1 |
| 20260509164636 | 56 | 17 | 3.0 | 8.0 | 0.17 | 0.37 | 0.37 | 91 | 1046.1 |
| 20260509164626 | 56 | 18 | 3.0 | 8.0 | 0.17 | 0.37 | 0.37 | 91 | 1046.1 |
| 20260509164337 | 56 | 18 | 3.0 | 8.0 | 0.17 | 0.37 | 0.37 | 91 | 1046.2 |
| 20260509164237 | 56 | 19 | 3.0 | 8.0 | 0.18 | 0.37 | 0.37 | 91 | 1046.2 |
| 20260509164151 | 56 | 16 | 3.0 | 8.0 | 0.18 | 0.37 | 0.36 | 91 | 1046.2 |
| 20260509164143 | 56 | 18 | 3.0 | 8.0 | 0.18 | 0.36 | 0.36 | 91 | 1046.2 |
| 20260509164125 | 56 | 16 | 3.0 | 8.0 | 0.18 | 0.36 | 0.36 | 91 | 1046.3 |
| 20260509164115 | 56 | 16 | 3.0 | 8.0 | 0.19 | 0.36 | 0.36 | 91 | 1046.3 |
| 20260509163850 | 56 | 9 | 3.0 | 8.0 | 0.20 | 0.36 | 0.36 | 91 | 1046.4 |
| 20260509163531 | 57 | 29 | 3.0 | 6.0 | 0.20 | 0.36 | 0.36 | 91 | 1046.5 |
| 20260509163431 | 57 | 31 | 3.0 | 6.0 | 0.21 | 0.36 | 0.35 | 91 | 1046.6 |
| 20260509163404 | 57 | 29 | 3.0 | 6.0 | 0.20 | 0.35 | 0.35 | 91 | 1046.6 |
| 20260509163329 | 57 | 31 | 3.0 | 6.0 | 0.21 | 0.35 | 0.35 | 91 | 1046.6 |
| 20260509163232 | 57 | 23 | 2.0 | 5.0 | 0.21 | 0.35 | 0.35 | 91 | 1046.7 |
| 20260509163132 | 57 | 23 | 2.0 | 5.0 | 0.22 | 0.35 | 0.35 | 91 | 1046.6 |
| 20260509163032 | 57 | 25 | 2.0 | 5.0 | 0.23 | 0.35 | 0.35 | 91 | 1046.7 |
| 20260509162932 | 57 | 228 | 2.0 | 5.0 | 0.24 | 0.35 | 0.35 | 91 | 1046.8 |
| 20260509162906 | 57 | 228 | 2.0 | 5.0 | 0.23 | 0.35 | 0.35 | 91 | 1046.8 |
| 20260509162833 | 57 | 226 | 2.0 | 5.0 | 0.24 | 0.35 | 0.35 | 91 | 1046.8 |
| 20260509162731 | 57 | 223 | 2.0 | 4.0 | 0.24 | 0.35 | 0.35 | 91 | 1046.8 |
| 20260509162628 | 57 | 220 | 1.0 | 4.0 | 0.24 | 0.35 | 0.34 | 91 | 1046.8 |
| 20260509162526 | 57 | 220 | 1.0 | 4.0 | 0.24 | 0.34 | 0.34 | 91 | 1046.9 |
| 20260509162407 | 57 | 220 | 1.0 | 4.0 | 0.24 | 0.34 | 0.34 | 91 | 1046.9 |
| 20260509162326 | 57 | 220 | 1.0 | 4.0 | 0.24 | 0.34 | 0.33 | 91 | 1047.0 |
| 20260509162224 | 57 | 217 | 1.0 | 4.0 | 0.24 | 0.33 | 0.33 | 91 | 1047.0 |
| 20260509162210 | 57 | 217 | 1.0 | 4.0 | 0.24 | 0.33 | 0.33 | 91 | 1047.0 |
| 20260509162202 | 57 | 217 | 1.0 | 4.0 | 0.25 | 0.33 | 0.32 | 91 | 1047.0 |
| 20260509162150 | 57 | 216 | 1.0 | 4.0 | 0.25 | 0.32 | 0.32 | 91 | 1047.1 |
| 20260509161922 | 57 | 216 | 1.0 | 4.0 | 0.25 | 0.32 | 0.32 | 91 | 1047.1 |
| 20260509161910 | 57 | 217 | 1.0 | 4.0 | 0.26 | 0.32 | 0.32 | 91 | 1047.1 |
| 20260509161849 | 57 | 217 | 1.0 | 4.0 | 0.26 | 0.32 | 0.31 | 91 | 1047.2 |
| 20260509161617 | 57 | 217 | 1.0 | 4.0 | 0.26 | 0.31 | 0.31 | 91 | 1047.2 |
| 20260509161601 | 57 | 216 | 1.0 | 4.0 | 0.26 | 0.31 | 0.31 | 91 | 1047.2 |
| 20260509161550 | 57 | 216 | 1.0 | 4.0 | 0.25 | 0.31 | 0.31 | 91 | 1047.2 |
| 20260509161051 | 57 | 214 | 1.0 | 4.0 | 0.24 | 0.30 | 0.29 | 91 | 1047.4 |
| 20260509161040 | 57 | 213 | 1.0 | 4.0 | 0.24 | 0.29 | 0.29 | 91 | 1047.3 |
| 20260509161029 | 57 | 213 | 1.0 | 4.0 | 0.24 | 0.29 | 0.29 | 91 | 1047.4 |
| 20260509160705 | 57 | 212 | 1.0 | 2.0 | 0.24 | 0.29 | 0.28 | 91 | 1047.4 |